Latitude: N 50° 09' 49" Longitude: W 05° 11' 53" Elevation: 168m ASL

There are 21 visitors online

Adverts

<- Previous Day | Today | Next Day ->

All Data for 17 October 2018

Time
A - D
Temp
A - D
Dew Point
A - D
Humidity
A - D
Pressure
A - D
Wind
A - D
Wind Dir Gust
A - D
Rain Rate
A - D
Rain Total
00:00 13.5 13.4 99 1016.7 9.2 S 12.1 0.8 0.0
00:01 13.5 13.4 99 1016.9 11.4 S 12.1 1.5 0.1
00:02 13.5 13.4 99 1016.8 13.0 S 13.0 1.5 0.1
00:03 13.5 13.4 99 1016.8 10.7 S 13.0 0.8 0.1
00:04 13.5 13.4 99 1016.9 13.0 S 13.0 0.8 0.1
00:05 13.5 13.4 99 1016.8 10.7 SW 13.0 0.8 0.1
00:07 13.5 13.4 99 1016.9 9.2 SE 13.0 0.8 0.1
00:08 13.5 13.4 99 1016.8 8.3 SW 13.0 0.8 0.2
00:09 13.5 13.4 99 1016.8 7.6 S 13.0 1.5 0.2
00:10 13.5 13.4 99 1016.8 9.2 SW 13.0 1.5 0.2
00:11 13.5 13.4 99 1016.8 9.2 S 13.0 0.8 0.2
00:12 13.5 13.4 99 1016.8 10.7 SW 13.0 0.8 0.2
00:13 13.5 13.4 99 1016.7 9.2 S 13.0 0.8 0.2
00:14 13.5 13.4 99 1016.9 7.6 SE 11.4 0.0 0.2
00:15 13.6 13.5 99 1016.9 6.0 S 10.7 0.0 0.2
00:16 13.5 13.4 99 1016.9 9.2 S 10.7 0.0 0.2
00:17 13.5 13.4 99 1016.8 9.2 SSW 10.7 0.0 0.2
00:18 13.5 13.4 99 1016.9 9.8 SE 10.7 0.8 0.3
00:19 13.5 13.4 99 1016.8 6.9 S 10.7 0.8 0.3
00:20 13.5 13.4 99 1016.9 6.9 S 10.7 0.8 0.3
00:21 13.5 13.4 99 1016.8 5.4 S 10.7 0.8 0.3
00:22 13.5 13.4 99 1016.8 6.0 S 10.7 0.8 0.3
00:23 13.5 13.4 99 1016.8 7.6 S 9.8 0.0 0.3
00:24 13.5 13.4 99 1016.7 5.4 SW 9.8 0.0 0.3
00:26 13.5 13.4 99 1016.8 5.4 S 9.8 0.8 0.3
00:27 13.5 13.4 99 1016.8 6.9 S 9.8 0.8 0.3
00:28 13.5 13.4 99 1016.8 4.5 S 7.6 0.8 0.3
00:29 13.5 13.4 99 1016.8 5.4 SE 7.6 0.8 0.3
00:30 13.5 13.4 99 1016.8 6.0 SW 7.6 0.0 0.3
00:31 13.5 13.4 99 1016.8 5.4 SW 7.6 0.0 0.3
00:32 13.5 13.4 99 1016.8 6.9 S 7.6 0.0 0.3
00:33 13.5 13.4 99 1016.9 5.4 W 7.6 0.0 0.3
00:34 13.5 13.4 99 1016.9 6.0 SW 6.9 0.0 0.3
00:35 13.4 13.3 99 1016.9 6.0 NW 6.9 0.0 0.3
00:36 13.4 13.3 99 1017.0 3.1 W 6.9 0.0 0.3
00:37 13.4 13.3 99 1016.9 7.6 NW 7.6 0.0 0.3
00:38 13.3 13.2 99 1017.0 8.3 W 8.3 0.8 0.4
00:39 13.3 13.2 99 1016.9 9.2 NW 9.2 0.8 0.4
00:40 13.2 13.1 99 1016.9 6.9 W 9.2 0.8 0.4
00:41 13.2 13.1 99 1016.9 7.6 NW 9.2 0.8 0.4
00:42 13.1 13.0 99 1016.8 4.5 NW 9.2 0.8 0.4
00:43 13.1 13.0 99 1017.0 4.5 NW 9.2 0.0 0.4
00:44 13.0 12.9 99 1017.1 3.8 W 9.2 0.0 0.4
00:45 12.9 12.8 99 1016.8 5.4 SW 9.2 0.0 0.4
00:46 12.9 12.8 99 1017.0 3.8 NW 9.2 0.0 0.4
00:47 12.9 12.8 99 1016.9 5.4 W 9.2 0.0 0.4
00:48 12.8 12.7 99 1017.0 3.8 W 9.2 0.0 0.4
00:49 12.8 12.7 99 1016.8 6.0 W 7.6 0.0 0.4
00:50 12.8 12.7 99 1017.2 6.0 W 7.6 0.8 0.4
00:51 12.7 12.6 99 1017.0 4.5 W 7.6 0.8 0.4
00:52 12.7 12.6 99 1016.9 6.0 NW 6.0 0.8 0.4
00:53 12.7 12.6 99 1017.1 4.5 W 6.0 0.8 0.4
00:54 12.6 12.5 99 1017.1 5.4 W 6.0 0.8 0.4
00:56 12.6 12.5 99 1017.1 3.1 SW 6.0 0.0 0.4
00:57 12.6 12.5 99 1017.0 3.8 W 6.0 0.0 0.4
00:58 12.6 12.5 99 1017.0 4.5 NW 6.0 0.8 0.5
00:59 12.5 12.4 99 1017.1 2.2 N 6.0 0.8 0.5
01:00 12.5 12.4 99 1017.1 3.8 W 6.0 0.8 0.5
01:01 12.5 12.4 99 1017.0 3.8 W 6.0 0.8 0.5
01:02 12.5 12.4 99 1017.0 4.5 S 6.0 0.8 0.6
01:03 12.4 12.3 99 1017.0 3.8 NW 5.4 0.8 0.6
01:04 12.4 12.3 99 1017.2 2.2 NW 5.4 0.8 0.6
01:05 12.4 12.3 99 1017.0 0.7 N 5.4 0.8 0.6
01:07 12.4 12.3 99 1017.1 0.7 NE 5.4 0.8 0.6
01:08 12.4 12.3 99 1017.1 0.7 SW 5.4 0.0 0.6
01:09 12.4 12.3 99 1017.2 1.6 N 5.4 0.0 0.6
01:10 12.3 12.2 99 1016.9 3.1 NW 5.4 0.0 0.6
01:11 12.3 12.2 99 1017.1 3.1 W 5.4 0.0 0.6
01:12 12.3 12.2 99 1017.0 1.6 N 4.5 0.0 0.6
01:13 12.3 12.2 99 1017.1 0.7 NE 3.8 0.0 0.6
01:14 12.3 12.2 99 1017.0 1.6 NW 3.1 0.0 0.6
01:15 12.3 12.2 99 1016.8 1.6 N 3.1 0.0 0.6
01:16 12.3 12.2 99 1017.0 1.6 N 3.1 0.0 0.6
01:17 12.3 12.2 99 1017.1 1.6 NE 3.1 0.0 0.6
01:18 12.3 12.2 99 1017.0 0.0 NW 3.1 0.0 0.6
01:19 12.3 12.2 99 1017.0 0.0 NW 3.1 0.0 0.6
01:20 12.2 12.1 99 1017.2 1.6 NW 3.1 0.0 0.6
01:21 12.2 12.1 99 1017.0 0.0 NW 3.1 0.0 0.6
01:22 12.2 12.1 99 1017.0 0.0 W 2.2 0.0 0.6
01:23 12.2 12.1 99 1017.0 0.0 W 2.2 0.0 0.6
01:24 12.2 12.1 99 1017.0 0.0 W 2.2 0.0 0.6
01:26 12.2 12.1 99 1017.0 0.0 N 1.6 0.0 0.6
01:27 12.2 12.1 99 1016.8 1.6 N 1.6 0.0 0.6
01:28 12.2 12.1 99 1016.9 0.0 NW 1.6 0.0 0.6
01:29 12.2 12.1 99 1017.0 0.0 N 1.6 0.0 0.6
01:30 12.2 12.1 99 1017.0 0.0 N 1.6 0.0 0.6
01:31 12.2 12.1 99 1017.0 0.0 N 1.6 0.0 0.6
01:32 12.2 12.1 99 1016.9 0.0 N 1.6 0.0 0.6
01:33 12.2 12.1 99 1017.0 0.0 N 1.6 0.0 0.6
01:34 12.2 12.1 99 1016.9 0.7 N 1.6 0.0 0.6
01:35 12.2 12.1 99 1016.9 0.0 N 1.6 0.0 0.6
01:36 12.2 12.1 99 1016.9 1.6 N 1.6 0.0 0.6
01:37 12.2 12.1 99 1016.9 0.7 N 1.6 0.0 0.6
01:38 12.2 12.1 99 1016.8 0.0 N 1.6 0.0 0.6
01:39 12.2 12.1 99 1016.8 0.0 N 1.6 0.0 0.6
01:40 12.1 12.0 99 1016.8 1.6 NE 1.6 0.0 0.6
01:41 12.2 12.1 99 1016.9 1.6 NE 1.6 0.0 0.6
01:42 12.1 12.0 99 1016.9 0.7 N 1.6 0.0 0.6
01:43 12.1 12.0 99 1016.9 1.6 NE 1.6 0.0 0.6
01:45 12.1 12.0 99 1016.9 0.0 N 1.6 0.0 0.6
01:46 12.2 12.1 99 1016.8 0.0 N 1.6 0.0 0.6
01:47 12.1 12.0 99 1016.8 0.0 N 1.6 0.0 0.6
01:48 12.2 12.1 99 1016.8 0.0 N 1.6 0.0 0.6
01:49 12.1 12.0 99 1016.8 0.0 N 1.6 0.0 0.6
01:50 12.1 12.0 99 1016.9 0.0 NW 1.6 0.0 0.6
01:51 12.1 12.0 99 1016.8 0.0 N 1.6 0.0 0.6
01:52 12.1 12.0 99 1016.9 0.0 NW 1.6 0.0 0.6
01:53 12.1 12.0 99 1016.8 0.0 NW 0.7 0.0 0.6
01:54 12.1 12.0 99 1016.8 0.0 N 0.0 0.0 0.6
01:55 12.1 12.0 99 1016.8 0.0 N 0.0 0.0 0.6
01:56 12.1 12.0 99 1016.8 0.0 NW 0.0 0.0 0.6
01:57 12.1 12.0 99 1016.9 0.0 N 0.0 0.0 0.6
01:58 12.1 12.0 99 1016.9 0.0 N 0.0 0.0 0.6
01:59 12.1 12.0 99 1016.9 0.0 N 0.0 0.0 0.6
02:00 12.1 12.0 99 1016.8 0.0 NW 0.0 0.0 0.6
02:01 12.1 12.0 99 1016.9 0.0 NW 0.0 0.0 0.6
02:02 12.1 12.0 99 1016.9 0.0 NW 0.0 0.0 0.6
02:04 12.1 12.0 99 1016.8 0.0 NW 0.0 0.0 0.6
02:05 12.1 12.0 99 1016.8 0.0 NW 0.0 0.0 0.6
02:06 12.1 12.0 99 1016.9 0.0 NW 0.0 0.0 0.6
02:07 12.1 12.0 99 1016.9 1.6 W 1.6 0.0 0.6
02:08 12.1 12.0 99 1016.9 2.2 W 2.2 0.0 0.6
02:09 12.1 12.0 99 1017.0 2.2 W 2.2 0.0 0.6
02:10 12.1 12.0 99 1016.9 0.7 W 2.2 0.0 0.6
02:11 12.1 12.0 99 1016.9 1.6 NW 2.2 0.0 0.6
02:12 12.1 12.0 99 1017.1 1.6 S 2.2 0.0 0.6
02:13 12.1 12.0 99 1016.9 0.7 NW 2.2 0.0 0.6
02:14 12.1 12.0 99 1016.9 0.7 NW 2.2 0.0 0.6
02:15 12.1 12.0 99 1017.0 0.7 S 2.2 0.0 0.6
02:16 12.1 12.0 99 1016.8 1.6 W 2.2 0.0 0.6
02:17 12.1 12.0 99 1016.9 2.2 NW 2.2 0.0 0.6
02:18 12.1 12.0 99 1016.9 2.2 NW 2.2 0.0 0.6
02:19 12.1 12.0 99 1016.9 3.1 W 3.1 0.0 0.6
02:20 12.1 12.0 99 1017.1 0.0 NW 3.1 0.0 0.6
02:21 12.1 12.0 99 1016.8 0.0 NW 3.1 0.0 0.6
02:22 12.1 12.0 99 1017.0 0.0 NW 3.1 0.0 0.6
02:23 12.1 12.0 99 1016.9 0.0 NW 3.1 0.0 0.6
02:24 12.1 12.0 99 1016.9 0.0 N 3.1 0.0 0.6
02:25 12.1 12.0 99 1016.9 0.0 N 3.1 0.0 0.6
02:26 12.1 12.0 99 1016.9 0.0 W 3.1 0.0 0.6
02:27 12.1 12.0 99 1016.9 0.0 N 3.1 0.0 0.6
02:28 12.1 12.0 99 1016.9 0.0 N 3.1 0.0 0.6
02:29 12.1 12.0 99 1016.9 0.0 N 2.2 0.0 0.6
02:30 12.1 12.0 99 1016.9 0.0 N 0.0 0.0 0.6
02:31 12.1 12.0 99 1017.0 0.0 W 0.0 0.0 0.6
02:32 12.2 12.1 99 1016.8 0.0 SW 0.0 0.0 0.6
02:33 12.1 12.0 99 1016.8 0.0 NW 0.0 0.0 0.6
02:34 12.1 12.0 99 1016.8 0.0 WNW 0.0 0.0 0.6
02:35 12.1 12.0 99 1016.8 0.0 N 0.0 0.0 0.6
02:36 12.1 12.0 99 1017.1 0.0 N 0.0 0.0 0.6
02:37 12.1 12.0 99 1017.1 0.0 NW 0.0 0.0 0.6
02:38 12.1 12.0 99 1016.9 0.0 NW 0.0 0.0 0.6
02:39 12.1 12.0 99 1016.8 0.0 NW 0.0 0.0 0.6
02:40 12.1 12.0 99 1017.0 0.0 NW 0.0 0.0 0.6
02:42 12.1 12.0 99 1016.9 0.0 NW 0.0 0.0 0.6
02:43 12.1 12.0 99 1016.8 0.0 N 0.0 0.0 0.6
02:44 12.1 12.0 99 1016.9 0.0 N 0.0 0.0 0.6
02:45 12.1 12.0 99 1017.0 0.0 N 0.0 0.0 0.6
02:46 12.1 12.0 99 1016.9 0.0 N 0.0 0.0 0.6
02:47 12.1 12.0 99 1016.9 0.0 N 0.0 0.0 0.6
02:48 12.1 12.0 99 1016.6 0.0 N 0.0 0.0 0.6
02:49 12.1 12.0 99 1016.8 0.0 N 0.0 0.0 0.6
02:50 12.1 12.0 99 1016.8 0.0 NW 0.0 0.0 0.6
02:51 12.1 12.0 99 1016.8 0.0 NW 0.0 0.0 0.6
02:52 12.1 12.0 99 1016.8 0.0 NW 0.0 0.0 0.6
02:53 12.1 12.0 99 1016.9 0.0 NW 0.0 0.0 0.6
02:54 12.1 12.0 99 1016.8 0.0 NW 0.0 0.0 0.6
02:55 12.1 12.0 99 1016.8 0.0 N 0.0 0.0 0.6
02:56 12.1 12.0 99 1016.8 0.0 N 0.0 0.0 0.6
02:57 12.1 12.0 99 1016.8 0.0 N 0.0 0.0 0.6
02:58 12.1 12.0 99 1016.8 0.0 N 0.0 0.0 0.6
02:59 12.0 11.9 99 1016.8 0.0 N 0.0 0.0 0.6
03:00 12.1 12.0 99 1016.8 0.0 N 0.0 0.0 0.6
03:01 12.1 12.0 99 1016.8 0.0 N 0.0 0.0 0.6
03:02 12.1 12.0 99 1016.7 0.0 N 0.0 0.0 0.6
03:03 12.1 12.0 99 1016.7 0.0 N 0.0 0.0 0.6
03:04 12.1 12.0 99 1016.7 0.0 N 0.0 0.0 0.6
03:05 12.0 11.9 99 1016.8 0.0 N 0.0 0.0 0.6
03:06 12.0 11.9 99 1016.8 0.0 N 0.0 0.0 0.6
03:07 12.0 11.9 99 1016.8 0.0 N 0.0 0.0 0.6
03:08 12.0 11.9 99 1016.8 0.0 N 0.0 0.0 0.6
03:09 12.0 11.9 99 1016.7 0.0 N 0.0 0.0 0.6
03:10 12.0 11.9 99 1016.8 0.0 N 0.0 0.0 0.6
03:11 12.0 11.9 99 1016.8 0.0 N 0.0 0.0 0.6
03:12 12.0 11.9 99 1016.7 0.0 N 0.0 0.0 0.6
03:13 12.0 11.9 99 1016.8 0.0 N 0.0 0.0 0.6
03:14 12.0 11.9 99 1016.7 0.0 N 0.0 0.0 0.6
03:15 12.0 11.9 99 1016.8 0.0 N 0.0 0.0 0.6
03:16 12.0 11.9 99 1016.7 0.0 N 0.0 0.0 0.6
03:17 12.0 11.9 99 1016.8 0.0 N 0.0 0.0 0.6
03:18 12.0 11.9 99 1016.6 0.0 N 0.0 0.0 0.6
03:19 12.0 11.9 99 1016.7 0.0 N 0.0 0.0 0.6
03:20 12.0 11.9 99 1016.6 0.0 N 0.0 0.0 0.6
03:21 12.0 11.9 99 1016.7 0.0 N 0.0 0.0 0.6
03:22 12.0 11.9 99 1016.8 0.0 N 0.0 0.0 0.6
03:23 12.0 11.9 99 1016.7 0.0 N 0.0 0.0 0.6
03:24 12.0 11.9 99 1016.7 0.0 N 0.0 0.0 0.6
03:25 12.0 11.9 99 1016.7 0.0 N 0.0 0.0 0.6
03:26 12.0 11.9 99 1016.8 0.0 N 0.0 0.0 0.6
03:27 12.0 11.9 99 1016.8 0.0 N 0.0 0.0 0.6
03:28 12.0 11.9 99 1016.8 0.0 N 0.0 0.0 0.6
03:29 12.0 11.9 99 1016.8 0.0 N 0.0 0.0 0.6
03:30 12.0 11.9 99 1016.8 0.0 N 0.0 0.0 0.6
03:31 12.0 11.9 99 1016.8 0.0 N 0.0 0.0 0.6
03:32 12.0 11.9 99 1016.8 0.0 N 0.0 0.0 0.6
03:33 11.9 11.8 99 1017.0 0.0 N 0.0 0.0 0.6
03:34 12.0 11.9 99 1016.8 0.0 N 0.0 0.0 0.6
03:35 12.0 11.9 99 1016.9 0.0 N 0.0 0.0 0.6
03:36 12.0 11.9 99 1016.8 0.0 N 0.0 0.0 0.6
03:37 12.0 11.9 99 1016.8 0.0 N 0.0 0.0 0.6
03:38 12.0 11.9 99 1016.8 0.0 N 0.0 0.0 0.6
03:39 12.0 11.9 99 1016.8 0.0 N 0.7 0.0 0.6
03:40 12.0 11.9 99 1016.9 0.0 N 0.7 0.0 0.6
03:41 12.0 11.9 99 1016.7 0.0 N 0.7 0.0 0.6
03:42 11.9 11.8 99 1016.8 0.0 N 0.7 0.0 0.6
03:43 12.0 11.9 99 1016.8 0.0 N 0.7 0.0 0.6
03:44 12.0 11.9 99 1016.8 0.0 N 0.7 0.0 0.6
03:45 12.0 11.9 99 1016.8 0.0 N 0.7 0.0 0.6
03:46 12.0 11.9 99 1016.8 0.0 N 0.7 0.0 0.6
03:47 12.0 11.9 99 1016.8 0.0 N 0.7 0.0 0.6
03:48 12.0 11.9 99 1016.8 0.0 N 0.7 0.0 0.6
03:49 12.0 11.9 99 1016.8 0.0 N 0.0 0.0 0.6
03:50 12.0 11.9 99 1017.0 0.0 N 0.0 0.0 0.6
03:51 11.9 11.8 99 1016.8 0.0 N 0.0 0.0 0.6
03:52 12.0 11.9 99 1016.7 0.0 N 0.0 0.0 0.6
03:53 12.0 11.9 99 1016.8 0.0 N 0.0 0.0 0.6
03:54 12.0 11.9 99 1016.8 0.0 N 0.0 0.0 0.6
03:55 11.9 11.8 99 1016.9 0.0 N 0.0 0.0 0.6
03:56 12.0 11.9 99 1016.9 0.0 N 0.0 0.0 0.6
03:57 11.9 11.8 99 1016.9 0.0 N 0.0 0.0 0.6
03:58 11.9 11.8 99 1016.9 0.0 N 0.0 0.0 0.6
03:59 11.9 11.8 99 1016.9 0.0 N 0.0 0.0 0.6
04:00 12.0 11.9 99 1016.8 0.0 N 0.0 0.0 0.6
04:01 12.0 11.9 99 1016.8 0.0 N 0.0 0.0 0.6
04:02 12.0 11.9 99 1016.8 0.0 N 0.0 0.0 0.6
04:03 12.0 11.9 99 1016.8 0.0 N 0.0 0.0 0.6
04:04 12.0 11.9 99 1016.8 0.0 N 0.0 0.0 0.6
04:05 12.0 11.9 99 1016.7 0.0 N 0.0 0.0 0.6
04:06 12.0 11.9 99 1016.7 0.0 N 0.0 0.0 0.6
04:07 12.0 11.9 99 1016.7 0.0 N 0.0 0.0 0.6
04:08 12.0 11.9 99 1016.7 0.0 N 0.0 0.0 0.6
04:09 12.0 11.9 99 1016.7 0.0 N 0.0 0.0 0.6
04:10 12.0 11.9 99 1016.7 0.0 N 0.0 0.0 0.6
04:11 12.0 11.9 99 1016.7 0.0 NE 0.0 0.0 0.6
04:12 12.0 11.9 99 1016.8 0.0 NE 0.0 0.0 0.6
04:13 12.0 11.9 99 1016.8 0.0 NE 0.0 0.0 0.6
04:14 12.0 11.9 99 1016.8 0.0 NE 0.0 0.0 0.6
04:15 12.0 11.9 99 1016.8 0.0 NE 0.0 0.0 0.6
04:16 11.9 11.8 99 1016.8 0.0 NE 0.0 0.0 0.6
04:17 11.9 11.8 99 1016.7 0.0 NE 0.0 0.0 0.6
04:18 12.0 11.9 99 1016.7 0.0 NE 0.0 0.0 0.6
04:19 11.9 11.8 99 1016.8 0.0 NE 0.0 0.0 0.6
04:20 11.9 11.8 99 1016.7 0.0 NE 0.0 0.0 0.6
04:21 12.0 11.9 99 1016.8 0.0 N 0.0 0.0 0.6
04:22 12.0 11.9 99 1016.6 0.0 N 0.0 0.0 0.6
04:23 11.9 11.8 99 1016.6 0.0 NE 0.0 0.0 0.6
04:24 11.9 11.8 99 1016.5 0.0 N 0.0 0.0 0.6
04:25 11.9 11.8 99 1016.5 0.7 N 0.7 0.0 0.6
04:26 11.9 11.8 99 1016.6 0.0 N 0.7 0.0 0.6
04:27 11.9 11.8 99 1016.6 0.0 N 0.7 0.0 0.6
04:28 11.9 11.8 99 1016.7 0.0 N 0.7 0.0 0.6
04:29 11.9 11.8 99 1016.5 0.0 NW 0.7 0.0 0.6
04:30 11.9 11.8 99 1016.5 0.0 NW 0.7 0.0 0.6
04:31 11.9 11.8 99 1016.6 0.0 NW 0.7 0.0 0.6
04:32 11.9 11.8 99 1016.6 0.0 NW 0.7 0.0 0.6
04:33 11.9 11.8 99 1016.8 0.0 NW 0.7 0.0 0.6
04:34 11.9 11.8 99 1016.6 0.7 N 0.7 0.0 0.6
04:35 11.9 11.8 99 1016.5 0.0 N 0.7 0.0 0.6
04:36 11.9 11.8 99 1016.6 0.0 N 0.7 0.0 0.6
04:37 11.9 11.8 99 1016.6 0.0 N 0.7 0.0 0.6
04:38 11.9 11.8 99 1016.7 0.0 N 0.7 0.0 0.6
04:39 11.9 11.8 99 1016.6 0.0 N 0.7 0.0 0.6
04:40 11.9 11.8 99 1016.7 0.0 N 0.7 0.0 0.6
04:41 11.9 11.8 99 1016.7 0.0 N 0.7 0.0 0.6
04:42 11.9 11.8 99 1016.5 0.0 N 0.7 0.0 0.6
04:43 11.8 11.7 99 1016.6 0.0 N 0.7 0.0 0.6
04:44 11.8 11.7 99 1016.6 0.0 N 0.0 0.0 0.6
04:45 11.8 11.7 99 1016.7 0.0 N 0.0 0.0 0.6
04:46 11.8 11.7 99 1016.7 0.0 N 0.0 0.0 0.6
04:47 11.8 11.7 99 1016.6 0.0 NE 0.0 0.0 0.6
04:48 11.9 11.8 99 1016.5 0.0 NW 0.0 0.0 0.6
04:49 11.8 11.7 99 1016.6 0.0 N 0.0 0.0 0.6
04:50 11.8 11.7 99 1016.5 0.0 N 0.0 0.0 0.6
04:51 11.8 11.7 99 1016.5 0.0 N 0.0 0.0 0.6
04:52 11.8 11.7 99 1016.5 0.0 NE 0.0 0.0 0.6
04:53 11.8 11.7 99 1016.5 0.0 N 0.0 0.0 0.6
04:54 11.9 11.8 99 1016.5 0.0 NE 0.0 0.0 0.6
04:55 11.8 11.7 99 1016.5 0.0 N 0.0 0.0 0.6
04:56 11.8 11.7 99 1016.5 0.0 N 0.0 0.0 0.6
04:57 11.8 11.7 99 1016.6 0.0 N 0.0 0.0 0.6
04:58 11.9 11.8 99 1016.5 0.0 NW 0.0 0.0 0.6
04:59 11.8 11.7 99 1016.5 0.0 N 0.0 0.0 0.6
05:00 11.9 11.8 99 1016.5 0.0 NW 0.0 0.0 0.6
05:01 11.9 11.8 99 1016.5 0.0 NW 0.0 0.0 0.6
05:02 11.9 11.8 99 1016.6 0.0 NW 0.0 0.0 0.6
05:03 11.9 11.8 99 1016.5 0.0 NW 0.0 0.0 0.6
05:04 11.9 11.8 99 1016.7 0.0 NW 0.0 0.0 0.6
05:05 11.9 11.8 99 1016.6 0.0 NW 0.0 0.0 0.6
05:06 11.8 11.7 99 1016.7 0.0 NW 0.0 0.0 0.6
05:07 11.8 11.7 99 1016.8 0.0 NW 0.0 0.0 0.6
05:08 11.8 11.7 99 1016.8 0.0 NW 0.0 0.0 0.6
05:09 11.8 11.7 99 1016.8 0.0 NW 0.0 0.0 0.6
05:10 11.8 11.7 99 1016.9 0.0 NW 0.0 0.0 0.6
05:11 11.8 11.7 99 1016.8 0.0 NW 0.0 0.0 0.6
05:12 11.8 11.7 99 1016.8 0.0 NW 0.0 0.0 0.6
05:13 11.8 11.7 99 1016.9 0.0 W 0.0 0.0 0.6
05:14 11.8 11.7 99 1017.0 0.0 W 0.0 0.0 0.6
05:15 11.9 11.8 99 1016.9 0.0 W 0.0 0.0 0.6
05:16 11.8 11.7 99 1016.8 0.0 NW 0.0 0.0 0.6
05:17 11.8 11.7 99 1016.8 0.0 N 0.0 0.0 0.6
05:18 11.8 11.7 99 1016.8 0.0 N 0.0 0.0 0.6
05:19 11.8 11.7 99 1016.8 0.0 N 0.0 0.0 0.6
05:20 11.8 11.7 99 1016.8 0.0 N 0.0 0.0 0.6
05:21 11.8 11.7 99 1016.7 0.0 NW 0.0 0.0 0.6
05:22 11.8 11.7 99 1016.8 0.0 NW 0.0 0.0 0.6
05:23 11.9 11.8 99 1016.9 0.0 NE 0.0 0.0 0.6
05:24 11.8 11.7 99 1016.8 0.0 NE 0.0 0.0 0.6
05:25 11.8 11.7 99 1016.6 2.2 NE 2.2 0.0 0.6
05:26 11.8 11.7 99 1016.7 2.2 NE 2.2 0.0 0.6
05:27 11.8 11.7 99 1016.8 1.6 NE 2.2 0.0 0.6
05:28 11.8 11.7 99 1016.9 0.0 NE 2.2 0.0 0.6
05:29 11.8 11.7 99 1016.8 0.0 NE 2.2 0.0 0.6
05:30 11.9 11.8 99 1016.8 0.0 NE 2.2 0.0 0.6
05:31 11.8 11.7 99 1016.7 0.0 NE 2.2 0.0 0.6
05:32 11.8 11.7 99 1016.8 0.0 NE 2.2 0.0 0.6
05:33 11.9 11.8 99 1016.9 0.0 NE 2.2 0.0 0.6
05:34 11.8 11.7 99 1016.8 0.0 NE 2.2 0.0 0.6
05:35 11.8 11.7 99 1016.9 0.0 NE 2.2 0.0 0.6
05:37 11.9 11.8 99 1017.0 0.0 NE 0.7 0.0 0.6
05:38 11.9 11.8 99 1016.8 0.0 NE 0.0 0.0 0.6
05:39 11.9 11.8 99 1016.9 0.0 NE 0.0 0.0 0.6
05:40 11.9 11.8 99 1017.0 0.0 NE 0.0 0.0 0.6
05:41 11.9 11.8 99 1016.9 0.0 NE 0.0 0.0 0.6
05:42 11.9 11.8 99 1016.8 0.0 NE 0.0 0.0 0.6
05:43 11.9 11.8 99 1016.9 0.0 NE 0.0 0.0 0.6
05:44 11.9 11.8 99 1016.9 0.0 NE 0.0 0.0 0.6
05:45 11.9 11.8 99 1017.0 0.0 NE 0.0 0.0 0.6
05:46 11.9 11.8 99 1017.0 0.0 NE 0.0 0.0 0.6
05:47 11.9 11.8 99 1017.0 0.0 NE 0.0 0.0 0.6
05:48 11.9 11.8 99 1016.9 0.0 NE 0.0 0.0 0.6
05:49 11.9 11.8 99 1016.9 0.0 NE 0.0 0.0 0.6
05:50 11.9 11.8 99 1016.9 0.0 NE 0.0 0.0 0.6
05:51 11.9 11.8 99 1016.9 0.0 NE 0.0 0.0 0.6
05:52 11.9 11.8 99 1016.9 0.0 NE 0.0 0.0 0.6
05:53 11.9 11.8 99 1016.9 0.0 NE 0.0 0.0 0.6
05:54 11.9 11.8 99 1017.0 0.0 NE 0.0 0.0 0.6
05:56 11.9 11.8 99 1017.0 0.0 NE 0.0 0.0 0.6
05:57 11.9 11.8 99 1016.9 0.0 NE 0.0 0.0 0.6
05:58 11.9 11.8 99 1017.1 0.0 NE 0.0 0.0 0.6
05:59 11.9 11.8 99 1016.9 0.0 NE 0.0 0.0 0.6
06:00 11.9 11.8 99 1016.9 0.0 NE 0.0 0.0 0.6
06:01 11.9 11.8 99 1016.8 0.0 NE 0.0 0.0 0.6
06:02 11.9 11.8 99 1016.8 0.0 NE 0.0 0.0 0.6
06:03 11.9 11.8 99 1016.8 0.0 NE 0.0 0.0 0.6
06:04 11.9 11.8 99 1017.0 0.0 NE 0.0 0.0 0.6
06:05 11.9 11.8 99 1017.0 0.0 NE 0.0 0.0 0.6
06:06 11.9 11.8 99 1017.2 0.0 NE 0.0 0.0 0.6
06:07 11.9 11.8 99 1017.2 0.0 NE 0.0 0.0 0.6
06:08 11.9 11.8 99 1017.2 0.0 NE 0.0 0.0 0.6
06:09 11.9 11.8 99 1017.2 0.0 NE 0.0 0.0 0.6
06:10 12.0 11.9 99 1017.2 0.0 NE 0.0 0.0 0.6
06:11 11.9 11.8 99 1017.2 0.0 NE 0.0 0.0 0.6
06:12 12.0 11.9 99 1017.3 0.0 NE 0.0 0.0 0.6
06:13 11.9 11.8 99 1017.3 0.0 NE 0.0 0.0 0.6
06:14 11.9 11.8 99 1017.3 0.0 NE 0.0 0.0 0.6
06:15 11.9 11.8 99 1017.1 0.0 NE 0.0 0.0 0.6
06:16 11.9 11.8 99 1017.2 0.0 NE 0.0 0.0 0.6
06:17 11.9 11.8 99 1017.2 0.0 NE 0.0 0.0 0.6
06:18 11.9 11.8 99 1017.2 0.0 NE 0.0 0.0 0.6
06:19 11.9 11.8 99 1017.2 0.0 NE 0.0 0.0 0.6
06:20 11.9 11.8 99 1017.2 0.0 NE 0.0 0.0 0.6
06:21 11.9 11.8 99 1017.2 0.0 NE 0.0 0.0 0.6
06:22 11.9 11.8 99 1017.2 0.0 NE 0.0 0.0 0.6
06:23 11.9 11.8 99 1017.2 0.0 NE 0.0 0.0 0.6
06:24 11.9 11.8 99 1017.3 0.0 NE 0.0 0.0 0.6
06:25 11.9 11.8 99 1017.2 0.0 NE 0.0 0.0 0.6
06:26 11.9 11.8 99 1017.1 0.0 NE 0.0 0.0 0.6
06:27 11.9 11.8 99 1017.2 0.0 NE 0.0 0.0 0.6
06:28 12.0 11.9 99 1017.2 0.0 NE 0.0 0.0 0.6
06:29 12.0 11.9 99 1017.1 0.0 NE 0.0 0.0 0.6
06:30 11.9 11.8 99 1017.2 0.0 NE 0.0 0.0 0.6
06:31 12.0 11.9 99 1017.3 0.0 NE 0.0 0.0 0.6
06:32 11.9 11.8 99 1017.1 0.0 N 0.0 0.0 0.6
06:34 12.0 11.9 99 1017.2 0.0 N 0.0 0.0 0.6
06:35 12.0 11.9 99 1017.2 0.0 NE 0.0 0.0 0.6
06:36 12.0 11.9 99 1017.2 0.0 N 0.0 0.0 0.6
06:37 12.0 11.9 99 1017.3 0.0 N 0.0 0.0 0.6
06:38 12.0 11.9 99 1017.3 0.0 N 0.0 0.0 0.6
06:39 12.0 11.9 99 1017.3 0.0 N 0.0 0.0 0.6
06:40 12.0 11.9 99 1017.3 0.0 N 0.0 0.0 0.6
06:41 12.0 11.9 99 1017.3 0.0 N 0.0 0.0 0.6
06:42 12.0 11.9 99 1017.4 0.0 NW 0.0 0.0 0.6
06:43 12.0 11.9 99 1017.4 0.0 NW 0.0 0.0 0.6
06:44 12.0 11.9 99 1017.3 0.0 NW 0.0 0.0 0.6
06:45 12.0 11.9 99 1017.3 0.0 N 0.0 0.0 0.6
06:46 12.0 11.9 99 1017.3 0.0 N 0.0 0.0 0.6
06:47 12.0 11.9 99 1017.4 0.0 N 0.0 0.0 0.6
06:48 12.0 11.9 99 1017.3 0.0 N 0.0 0.0 0.6
06:49 12.0 11.9 99 1017.2 0.0 N 0.0 0.0 0.6
06:50 12.0 11.9 99 1017.3 0.0 N 0.0 0.0 0.6
06:51 12.0 11.9 99 1017.4 0.0 N 0.0 0.0 0.6
06:52 12.0 11.9 99 1017.3 0.0 NW 0.0 0.0 0.6
06:54 12.0 11.9 99 1017.3 0.0 NW 0.0 0.0 0.6
06:55 12.0 11.9 99 1017.2 0.0 NW 0.0 0.0 0.6
06:56 12.0 11.9 99 1017.3 0.0 NW 0.0 0.0 0.6
06:57 12.0 11.9 99 1017.3 0.0 NW 0.0 0.0 0.6
06:58 12.0 11.9 99 1017.3 0.0 NW 0.0 0.0 0.6
06:59 12.0 11.9 99 1017.4 0.0 NW 0.0 0.0 0.6
07:00 12.0 11.9 99 1017.2 0.0 NW 0.0 0.0 0.6
07:01 12.0 11.9 99 1017.1 0.0 N 0.0 0.0 0.6
07:02 12.0 11.9 99 1017.4 0.0 N 0.0 0.0 0.6
07:03 12.0 11.9 99 1017.3 0.0 N 0.0 0.0 0.6
07:04 12.0 11.9 99 1017.3 0.0 N 0.0 0.0 0.6
07:05 12.0 11.9 99 1017.5 0.0 N 0.0 0.0 0.6
07:06 12.0 11.9 99 1017.5 0.0 N 0.0 0.0 0.6
07:07 12.0 11.9 99 1017.5 0.0 N 0.0 0.0 0.6
07:08 12.0 11.9 99 1017.6 0.0 N 0.0 0.0 0.6
07:09 11.9 11.8 99 1017.4 0.0 NE 0.0 0.0 0.6
07:10 11.9 11.8 99 1017.5 0.0 W 0.0 0.0 0.6
07:11 12.0 11.9 99 1017.5 0.0 N 0.0 0.0 0.6
07:12 12.0 11.9 99 1017.5 0.0 NW 0.0 0.0 0.6
07:13 12.0 11.9 99 1017.5 0.0 N 0.0 0.0 0.6
07:14 12.0 11.9 99 1017.5 0.0 NW 0.0 0.0 0.6
07:15 11.9 11.8 99 1017.6 0.0 N 0.0 0.0 0.6
07:16 12.0 11.9 99 1017.6 0.0 NW 0.0 0.0 0.6
07:17 11.9 11.8 99 1017.6 0.0 N 0.0 0.0 0.6
07:18 11.9 11.8 99 1017.5 0.0 N 0.0 0.0 0.6
07:19 11.9 11.8 99 1017.8 0.0 NE 0.0 0.0 0.6
07:20 11.9 11.8 99 1017.7 0.0 NE 0.0 0.0 0.6
07:21 11.9 11.8 99 1017.7 0.0 NW 0.0 0.0 0.6
07:22 11.9 11.8 99 1017.8 0.0 N 0.0 0.0 0.6
07:23 11.9 11.8 99 1017.8 0.0 N 0.0 0.0 0.6
07:24 11.9 11.8 99 1017.8 0.0 N 0.0 0.0 0.6
07:25 11.9 11.8 99 1017.7 0.0 N 0.0 0.0 0.6
07:26 11.9 11.8 99 1017.7 0.0 N 0.0 0.0 0.6
07:27 11.9 11.8 99 1017.7 0.0 N 0.0 0.0 0.6
07:28 11.9 11.8 99 1017.8 0.0 N 0.0 0.0 0.6
07:29 11.9 11.8 99 1017.7 0.0 N 0.0 0.0 0.6
07:31 11.8 11.7 99 1017.7 0.0 NE 0.0 0.0 0.6
07:32 11.8 11.7 99 1017.7 0.0 N 0.0 0.0 0.6
07:33 11.8 11.7 99 1017.8 0.0 N 0.0 0.0 0.6
07:34 11.8 11.7 99 1017.8 0.0 N 0.0 0.0 0.6
07:35 11.8 11.7 99 1017.8 0.0 N 0.0 0.0 0.6
07:36 11.8 11.7 99 1017.8 0.0 N 0.0 0.0 0.6
07:37 11.8 11.7 99 1017.8 0.0 N 0.0 0.0 0.6
07:38 11.8 11.7 99 1017.8 0.0 N 0.0 0.0 0.6
07:39 11.8 11.7 99 1017.9 0.0 NW 0.0 0.0 0.6
07:40 11.8 11.7 99 1017.9 1.6 NE 2.2 0.0 0.6
07:41 11.8 11.7 99 1017.9 3.1 NW 3.1 0.0 0.6
07:42 11.8 11.7 99 1017.8 3.1 W 3.1 0.0 0.6
07:43 11.8 11.7 99 1017.9 2.2 W 3.1 0.0 0.6
07:44 11.8 11.7 99 1018.0 3.1 W 3.1 0.0 0.6
07:45 11.8 11.7 99 1017.8 3.8 NW 3.8 0.0 0.6
07:47 11.8 11.7 99 1017.9 2.2 W 3.8 0.0 0.6
07:48 11.8 11.7 99 1017.9 1.6 N 3.8 0.0 0.6
07:49 11.8 11.7 99 1017.9 0.0 N 3.8 0.0 0.6
07:50 11.8 11.7 99 1017.8 0.0 N 3.8 0.0 0.6
07:51 11.8 11.7 99 1017.9 0.0 W 3.8 0.0 0.6
07:52 11.8 11.7 99 1018.0 0.0 N 3.8 0.0 0.6
07:53 11.8 11.7 99 1017.8 0.0 NW 3.8 0.0 0.6
07:54 11.8 11.7 99 1017.8 1.6 NW 3.8 0.0 0.6
07:55 11.8 11.7 99 1018.0 0.0 NW 3.8 0.0 0.6
07:56 11.8 11.7 99 1017.9 0.7 N 3.1 0.0 0.6
07:57 11.8 11.7 99 1018.0 1.6 NW 2.2 0.0 0.6
07:58 11.8 11.7 99 1017.9 2.2 N 2.2 0.0 0.6
07:59 11.8 11.7 99 1017.9 2.2 N 2.2 0.0 0.6
08:00 11.8 11.7 99 1017.9 0.7 NW 2.2 0.0 0.6
08:01 11.8 11.7 99 1018.0 0.7 NW 2.2 0.0 0.6
08:03 11.8 11.7 99 1017.9 0.7 NW 2.2 0.0 0.6
08:04 11.8 11.7 99 1017.8 0.7 NW 2.2 0.0 0.6
08:05 11.7 11.6 99 1017.7 0.0 N 2.2 0.0 0.6
08:06 11.7 11.6 99 1018.0 0.0 N 2.2 0.0 0.6
08:07 11.7 11.6 99 1017.9 0.0 N 2.2 0.0 0.6
08:08 11.7 11.6 99 1017.9 0.0 N 2.2 0.0 0.6
08:09 11.7 11.6 99 1017.8 0.0 N 0.7 0.0 0.6
08:10 11.7 11.6 99 1017.9 0.0 N 0.7 0.0 0.6
08:11 11.7 11.6 99 1017.8 0.0 NE 0.7 0.0 0.6
08:12 11.7 11.6 99 1018.1 0.0 N 0.7 0.0 0.6
08:13 11.6 11.5 99 1018.0 0.0 N 0.7 0.0 0.6
08:14 11.7 11.6 99 1017.9 0.0 N 0.7 0.0 0.6
08:15 11.7 11.6 99 1018.0 0.0 N 0.7 0.0 0.6
08:17 11.6 11.5 99 1018.2 0.0 N 0.0 0.0 0.6
08:18 11.6 11.5 99 1018.1 0.7 N 0.7 0.0 0.6
08:19 11.6 11.5 99 1018.2 0.0 N 0.7 0.0 0.6
08:20 11.6 11.5 99 1018.2 0.0 N 0.7 0.0 0.6
08:21 11.6 11.5 99 1018.2 0.0 NW 0.7 0.0 0.6
08:22 11.6 11.5 99 1018.1 0.0 N 0.7 0.0 0.6
08:23 11.6 11.5 99 1018.2 0.0 N 0.7 0.0 0.6
08:24 11.6 11.5 99 1018.3 0.0 NW 0.7 0.0 0.6
08:25 11.6 11.5 99 1018.3 0.0 N 0.7 0.0 0.6
08:26 11.6 11.5 99 1018.2 0.0 NW 0.7 0.0 0.6
08:27 11.5 11.4 99 1018.2 0.0 N 0.7 0.0 0.6
08:28 11.6 11.5 99 1018.1 0.0 NW 0.7 0.0 0.6
08:29 11.6 11.5 99 1018.1 0.0 NW 0.0 0.0 0.6
08:30 11.5 11.4 99 1018.1 0.0 NW 0.0 0.0 0.6
08:31 11.5 11.4 99 1018.1 0.0 N 0.0 0.0 0.6
08:33 11.5 11.4 99 1018.0 0.0 N 1.6 0.0 0.6
08:34 11.6 11.5 99 1018.3 0.0 N 1.6 0.0 0.6
08:35 11.6 11.5 99 1018.3 0.0 N 1.6 0.0 0.6
08:36 11.6 11.5 99 1018.2 0.7 N 1.6 0.0 0.6
08:37 11.6 11.5 99 1018.3 0.0 N 1.6 0.0 0.6
08:38 11.6 11.5 99 1018.3 0.0 N 1.6 0.0 0.6
08:39 11.6 11.5 99 1018.3 0.0 N 1.6 0.0 0.6
08:40 11.6 11.5 99 1018.3 0.0 NW 1.6 0.0 0.6
08:41 11.5 11.4 99 1018.3 0.0 N 1.6 0.0 0.6
08:42 11.6 11.5 99 1018.2 0.7 NW 1.6 0.0 0.6
08:43 11.6 11.5 99 1018.3 0.0 NW 1.6 0.0 0.6
08:44 11.6 11.5 99 1018.3 0.0 NW 0.7 0.0 0.6
08:45 11.6 11.5 99 1018.3 0.0 NW 0.7 0.0 0.6
08:46 11.6 11.5 99 1018.3 0.0 N 0.7 0.0 0.6
08:48 11.6 11.5 99 1018.3 0.0 N 0.7 0.0 0.6
08:49 11.6 11.5 99 1018.3 0.0 NW 0.7 0.0 0.6
08:50 11.6 11.5 99 1018.3 1.6 N 1.6 0.0 0.6
08:51 11.6 11.5 99 1018.2 2.2 SSW 2.2 0.0 0.6
08:52 11.6 11.5 99 1018.3 0.7 N 2.2 0.0 0.6
08:53 11.6 11.5 99 1018.2 0.0 N 2.2 0.0 0.6
08:54 11.6 11.5 99 1018.2 0.0 N 2.2 0.0 0.6
08:55 11.6 11.5 99 1018.3 0.7 N 2.2 0.0 0.6
08:56 11.6 11.5 99 1018.2 1.6 N 2.2 0.0 0.6
08:57 11.6 11.5 99 1018.2 2.2 N 2.2 0.0 0.6
08:58 11.6 11.5 99 1018.4 1.6 N 2.2 0.0 0.6
08:59 11.6 11.5 99 1018.3 0.7 N 3.1 0.0 0.6
09:00 11.6 11.5 99 1018.3 1.6 NW 3.1 0.0 0.6
09:01 11.6 11.5 99 1018.2 1.6 NW 3.1 0.0 0.6
09:02 11.6 11.5 99 1018.3 1.6 W 3.1 0.0 0.6
09:03 11.6 11.5 99 1018.3 0.7 N 3.1 0.0 0.6
09:04 11.6 11.5 99 1018.3 1.6 NW 3.1 0.0 0.6
09:05 11.6 11.5 99 1018.3 1.6 N 3.1 0.0 0.6
09:06 11.6 11.5 99 1018.2 1.6 N 3.1 0.0 0.6
09:07 11.7 11.6 99 1018.3 3.1 N 3.1 0.0 0.6
09:08 11.7 11.6 99 1018.4 0.7 N 3.1 0.0 0.6
09:10 11.7 11.6 99 1018.3 2.2 N 3.1 0.0 0.6
09:11 11.7 11.6 99 1018.4 1.6 W 3.1 0.0 0.6
09:12 11.7 11.6 99 1018.4 1.6 NW 3.1 0.0 0.6
09:13 11.8 11.7 99 1018.5 2.2 N 3.1 0.0 0.6
09:14 11.8 11.7 99 1018.6 2.2 W 3.1 0.0 0.6
09:15 11.8 11.7 99 1018.5 1.6 N 3.1 0.0 0.6
09:16 11.8 11.7 99 1018.4 2.2 W 3.1 0.0 0.6
09:17 11.8 11.7 99 1018.4 1.6 N 3.1 0.0 0.6
09:18 11.8 11.7 99 1018.3 1.6 NW 2.2 0.0 0.6
09:19 11.8 11.7 99 1018.4 1.6 N 2.2 0.0 0.6
09:20 11.8 11.7 99 1018.3 1.6 N 2.2 0.0 0.6
09:21 11.9 11.8 99 1018.4 1.6 W 2.2 0.0 0.6
09:22 11.9 11.8 99 1018.4 1.6 NW 2.2 0.0 0.6
09:23 11.9 11.8 99 1018.5 1.6 N 2.2 0.0 0.6
09:24 11.9 11.8 99 1018.5 0.0 E 2.2 0.8 0.6
09:25 11.9 11.8 99 1018.5 3.1 NE 3.1 0.8 0.6
09:27 12.0 11.9 99 1018.6 1.6 NW 3.1 0.8 0.6
09:28 12.0 11.9 99 1018.4 3.8 N 3.8 0.8 0.6
09:29 12.0 11.9 99 1018.6 2.2 NE 3.8 0.0 0.6
09:30 12.0 11.9 99 1018.4 0.0 NW 3.8 0.0 0.6
09:31 12.0 11.9 99 1018.5 3.8 N 3.8 0.0 0.6
09:32 12.0 11.9 99 1018.5 2.2 NE 3.8 0.0 0.6
09:33 12.0 11.9 99 1018.4 1.6 N 3.8 0.0 0.6
09:34 12.0 11.9 99 1018.5 2.2 NW 3.8 0.0 0.6
09:35 12.1 12.0 99 1018.6 1.6 N 3.8 0.0 0.6
09:36 12.1 12.0 99 1018.6 3.8 NW 3.8 0.0 0.6
09:37 12.1 12.0 99 1018.6 1.6 E 3.8 0.0 0.6
09:38 12.1 12.0 99 1018.5 3.1 NW 3.8 0.0 0.6
09:39 12.1 12.0 99 1018.7 2.2 SW 3.8 0.0 0.6
09:40 12.1 12.0 99 1018.7 2.2 N 3.8 0.0 0.6
09:41 12.1 12.0 99 1018.6 2.2 W 3.8 0.0 0.6
09:43 12.2 12.1 99 1018.7 1.6 N 3.8 0.0 0.6
09:44 12.2 12.1 99 1018.8 4.5 NW 4.5 0.0 0.6
09:45 12.2 12.1 99 1018.8 2.2 N 4.5 0.0 0.6
09:46 12.2 12.1 99 1018.7 2.2 NW 4.5 0.0 0.6
09:47 12.2 12.1 99 1018.8 3.1 N 4.5 0.0 0.6
09:48 12.2 12.1 99 1018.7 3.1 N 4.5 0.0 0.6
09:49 12.2 12.1 99 1018.8 1.6 N 4.5 0.0 0.6
09:50 12.2 12.1 99 1018.9 2.2 NW 4.5 0.0 0.6
09:51 12.3 12.2 99 1018.8 3.1 NW 4.5 0.0 0.6
09:52 12.3 12.2 99 1018.8 3.8 NW 4.5 0.0 0.6
09:53 12.3 12.2 99 1018.8 2.2 N 4.5 0.0 0.6
09:54 12.3 12.2 99 1019.0 2.2 W 4.5 0.0 0.6
09:55 12.3 12.2 99 1018.9 0.7 N 3.8 0.0 0.6
09:56 12.3 12.2 99 1018.8 5.4 N 5.4 0.0 0.6
09:57 12.3 12.2 99 1018.8 5.4 N 5.4 0.0 0.6
09:58 12.4 12.3 99 1018.8 3.8 N 5.4 0.0 0.6
10:00 12.4 12.3 99 1018.8 3.1 W 5.4 0.0 0.6
10:01 12.4 12.3 99 1018.8 3.8 NW 5.4 0.0 0.6
10:02 12.4 12.3 99 1019.1 3.8 NW 5.4 0.0 0.6
10:03 12.4 12.3 99 1019.0 3.1 N 5.4 0.0 0.6
10:04 12.4 12.3 99 1019.0 3.1 W 5.4 0.0 0.6
10:05 12.4 12.3 99 1018.9 1.6 E 5.4 0.0 0.6
10:06 12.4 12.3 99 1018.9 2.2 NW 5.4 0.0 0.6
10:07 12.5 12.4 99 1019.0 2.2 NW 3.8 0.0 0.6
10:08 12.5 12.4 99 1019.0 3.8 N 3.8 0.0 0.6
10:09 12.5 12.4 99 1019.0 3.1 WNW 3.8 0.0 0.6
10:10 12.5 12.4 99 1019.2 1.6 N 3.8 0.0 0.6
10:11 12.5 12.4 99 1019.0 4.5 NE 4.5 0.0 0.6
10:12 12.5 12.4 99 1019.1 3.1 W 4.5 0.0 0.6
10:13 12.5 12.4 99 1019.1 4.5 NW 4.5 0.0 0.6
10:14 12.6 12.5 99 1019.0 2.2 N 4.5 0.0 0.6
10:15 12.6 12.5 99 1019.1 2.2 NE 4.5 0.0 0.6
10:17 12.6 12.5 99 1019.1 2.2 N 4.5 0.0 0.6
10:18 12.6 12.5 99 1019.1 3.1 N 4.5 0.0 0.6
10:19 12.7 12.6 99 1019.1 3.8 N 4.5 0.0 0.6
10:20 12.7 12.6 99 1019.1 3.1 NW 4.5 0.0 0.6
10:21 12.7 12.6 99 1019.0 3.8 E 4.5 0.0 0.6
10:22 12.8 12.7 99 1019.1 3.8 N 4.5 0.0 0.6
10:23 12.8 12.7 99 1019.0 6.9 N 6.9 0.0 0.6
10:24 12.8 12.7 99 1019.0 9.2 NW 9.2 0.0 0.6
10:25 12.8 12.7 99 1019.0 5.4 SE 9.2 0.0 0.6
10:26 12.8 12.7 99 1019.0 3.8 NW 9.2 0.0 0.6
10:27 12.8 12.7 99 1019.0 3.8 WNW 9.2 0.0 0.6
10:28 12.9 12.8 99 1019.1 3.1 N 9.2 0.0 0.6
10:29 12.9 12.8 99 1019.0 3.1 NW 9.2 0.0 0.6
10:30 12.9 12.8 99 1019.0 3.1 NW 9.2 0.0 0.6
10:31 12.9 12.8 99 1019.1 5.4 N 9.2 0.0 0.6
10:32 12.9 12.8 99 1019.1 5.4 N 9.2 0.0 0.6
10:33 12.9 12.8 99 1019.1 4.5 SW 9.2 0.0 0.6
10:35 12.9 12.8 99 1019.0 2.2 ENE 5.4 0.0 0.6
10:36 12.9 12.8 99 1019.1 3.1 NW 5.4 0.0 0.6
10:37 12.9 12.8 99 1019.1 6.0 W 6.0 0.0 0.6
10:38 12.9 12.8 99 1019.1 4.5 N 6.0 0.0 0.6
10:39 12.9 12.8 99 1019.1 3.8 WNW 6.0 0.0 0.6
10:40 12.9 12.8 99 1019.1 3.8 NE 6.0 0.0 0.6
10:41 12.9 12.8 99 1019.1 2.2 W 6.0 0.0 0.6
10:42 13.0 12.9 99 1019.1 3.1 NW 6.0 0.0 0.6
10:43 13.0 12.9 99 1019.1 4.5 N 6.0 0.0 0.6
10:44 13.0 12.9 99 1019.2 4.5 NW 6.0 0.0 0.6
10:45 13.0 12.9 99 1019.2 6.0 NW 6.0 0.0 0.6
10:46 13.0 12.9 99 1019.1 4.5 NE 6.0 0.0 0.6
10:47 13.0 12.9 99 1019.2 4.5 N 6.0 0.0 0.6
10:48 13.0 12.9 99 1019.1 3.1 NW 6.0 0.0 0.6
10:49 13.1 13.0 99 1019.0 6.0 N 6.0 0.0 0.6
10:50 13.1 13.0 99 1019.2 3.8 N 6.0 0.0 0.6
10:51 13.1 13.0 99 1019.2 6.0 N 6.0 0.0 0.6
10:52 13.1 13.0 99 1019.2 3.8 N 6.0 0.0 0.6
10:54 13.2 13.1 99 1019.2 5.4 NW 6.0 0.0 0.6
10:55 13.2 13.1 99 1019.3 5.4 NE 6.0 0.0 0.6
10:56 13.2 13.1 99 1019.2 6.0 N 6.0 0.0 0.6
10:57 13.2 13.1 99 1019.2 6.9 W 6.9 0.0 0.6
10:58 13.2 13.1 99 1019.3 5.4 W 6.9 0.0 0.6
10:59 13.3 13.2 99 1019.2 3.8 NE 6.9 0.0 0.6
11:00 13.3 13.2 99 1019.0 4.5 NE 6.9 0.0 0.6
11:01 13.3 13.2 99 1019.0 4.5 NE 6.9 0.0 0.6
11:02 13.3 13.2 99 1019.1 5.4 WNW 6.9 0.0 0.6
11:03 13.3 13.2 99 1019.0 3.1 NE 6.9 0.0 0.6
11:04 13.3 13.2 99 1019.1 6.9 NE 6.9 0.0 0.6
11:05 13.3 13.2 99 1019.1 5.4 WNW 6.9 0.0 0.6
11:06 13.3 13.2 99 1019.1 4.5 N 6.9 0.0 0.6
11:07 13.4 13.3 99 1019.2 5.4 NW 6.9 0.0 0.6
11:08 13.4 13.3 99 1019.1 3.1 N 6.9 0.0 0.6
11:09 13.4 13.3 99 1019.1 3.8 N 6.9 0.0 0.6
11:10 13.4 13.3 99 1019.1 3.8 N 6.9 0.0 0.6
11:11 13.4 13.3 99 1019.0 3.8 NW 6.9 0.0 0.6
11:12 13.5 13.4 99 1019.2 3.8 NW 6.9 0.0 0.6
11:13 13.5 13.4 99 1019.1 4.5 S 6.9 0.0 0.6
11:14 13.5 13.4 99 1019.2 5.4 NW 6.9 0.0 0.6
11:15 13.5 13.4 99 1019.0 6.9 NW 6.9 0.0 0.6
11:16 13.5 13.4 99 1019.2 5.4 NE 6.9 0.0 0.6
11:18 13.7 13.6 99 1019.4 6.0 N 6.9 0.0 0.6
11:19 13.7 13.6 99 1019.3 3.1 N 6.9 0.0 0.6
11:20 13.7 13.6 99 1019.3 3.8 NE 6.9 0.0 0.6
11:21 13.8 13.7 99 1019.3 6.9 N 6.9 0.0 0.6
11:22 13.9 13.8 99 1019.3 7.6 WNW 7.6 0.0 0.6
11:23 13.9 13.8 99 1019.3 3.8 N 7.6 0.0 0.6
11:24 13.9 13.8 99 1019.3 6.0 NE 7.6 0.0 0.6
11:25 14.0 13.9 99 1019.3 3.1 NW 7.6 0.0 0.6
11:26 14.0 13.9 99 1019.3 6.9 NW 7.6 0.0 0.6
11:27 14.1 14.0 99 1019.3 6.0 W 7.6 0.0 0.6
11:28 14.1 14.0 99 1019.3 6.0 N 7.6 0.0 0.6
11:29 14.2 14.1 99 1019.3 4.5 E 7.6 0.0 0.6
11:30 14.2 14.1 99 1019.3 5.4 E 7.6 0.0 0.6
11:31 14.2 14.1 99 1019.3 6.9 WNW 7.6 0.0 0.6
11:32 14.2 14.1 99 1019.3 4.5 NW 7.6 0.0 0.6
11:33 14.2 14.1 99 1019.3 6.0 NW 6.9 0.0 0.6
11:35 14.3 14.2 99 1019.4 5.4 NW 6.9 0.0 0.6
11:36 14.3 14.2 99 1019.3 5.4 N 6.9 0.0 0.6
11:37 14.4 14.3 99 1019.3 2.2 N 6.9 0.0 0.6
11:38 14.5 14.4 99 1019.5 3.1 N 6.9 0.0 0.6
11:39 14.5 14.4 99 1019.5 5.4 N 6.9 0.0 0.6
11:40 14.5 14.4 99 1019.4 3.8 N 6.9 0.0 0.6
11:41 14.6 14.5 99 1019.4 6.0 N 6.0 0.0 0.6
11:42 14.6 14.5 99 1019.3 6.0 W 6.0 0.0 0.6
11:43 14.7 14.6 99 1019.4 6.9 W 6.9 0.0 0.6
11:44 14.7 14.6 99 1019.4 5.4 N 6.9 0.0 0.6
11:45 14.7 14.6 99 1019.4 5.4 NW 6.9 0.0 0.6
11:46 14.8 14.7 99 1019.3 3.8 NW 6.9 0.0 0.6
11:47 14.9 14.8 99 1019.3 6.9 NW 6.9 0.0 0.6
11:48 14.9 14.8 99 1019.3 6.9 NW 6.9 0.0 0.6
11:49 14.9 14.8 99 1019.3 1.6 N 6.9 0.0 0.6
11:50 15.0 14.9 99 1019.3 6.9 N 6.9 0.0 0.6
11:51 15.0 14.9 99 1019.4 4.5 N 6.9 0.0 0.6
11:52 15.0 14.9 99 1019.4 4.5 N 6.9 0.0 0.6
11:53 15.0 14.9 99 1019.3 7.6 NE 7.6 0.0 0.6
11:54 15.0 14.9 99 1019.2 6.0 NE 7.6 0.0 0.6
11:56 15.0 14.9 99 1019.3 4.5 N 7.6 0.0 0.6
11:57 15.0 14.9 99 1019.1 6.0 NW 7.6 0.0 0.6
11:58 15.0 14.9 99 1019.2 3.8 NNW 7.6 0.0 0.6
11:59 15.0 14.9 99 1019.3 6.0 NW 7.6 0.0 0.6
12:00 15.1 15.0 99 1019.3 5.4 W 7.6 0.0 0.6
12:01 15.1 15.0 99 1019.2 4.5 NW 7.6 0.0 0.6
12:02 15.2 15.1 99 1019.3 6.9 N 7.6 0.0 0.6
12:03 15.1 15.0 99 1019.3 6.9 W 6.9 0.0 0.6
12:04 15.1 15.0 99 1019.2 6.9 N 6.9 0.0 0.6
12:05 15.1 15.0 99 1019.3 7.6 NW 7.6 0.0 0.6
12:06 15.1 15.0 99 1019.3 3.8 NE 7.6 0.0 0.6
12:07 15.1 15.0 99 1019.2 5.4 N 9.8 0.0 0.6
12:08 15.1 15.0 99 1019.3 6.0 NW 9.8 0.0 0.6
12:09 15.1 15.0 99 1019.2 6.0 SW 9.8 0.0 0.6
12:10 15.2 15.1 99 1019.2 6.9 N 9.8 0.0 0.6
12:11 15.2 15.1 99 1019.3 6.0 N 9.8 0.0 0.6
12:12 15.3 15.2 99 1019.4 7.6 N 9.8 0.0 0.6
12:13 15.3 15.2 99 1019.1 5.4 NW 9.8 0.0 0.6
12:14 15.4 15.3 99 1019.2 3.1 N 9.8 0.0 0.6
12:16 15.5 15.2 98 1019.3 6.9 NE 9.8 0.0 0.6
12:17 15.5 15.4 99 1019.1 7.6 SW 9.8 0.0 0.6
12:18 15.5 15.4 99 1019.2 7.6 NW 7.6 0.0 0.6
12:19 15.5 15.4 99 1019.1 6.0 N 7.6 0.0 0.6
12:20 15.5 15.4 99 1019.3 8.3 WNW 8.3 0.0 0.6
12:21 15.4 14.9 97 1019.2 6.0 NW 9.2 0.0 0.6
12:22 15.4 14.9 97 1019.3 3.1 N 9.2 0.0 0.6
12:23 15.4 14.9 97 1019.3 10.7 NE 10.7 0.0 0.6
12:24 15.4 15.1 98 1019.2 6.9 N 10.7 0.0 0.6
12:25 15.3 15.0 98 1019.2 7.6 NE 10.7 0.0 0.6
12:26 15.3 15.0 98 1019.2 4.5 N 10.7 0.0 0.6
12:27 15.3 15.0 98 1019.3 5.4 N 10.7 0.0 0.6
12:28 15.3 14.8 97 1019.3 0.0 NW 10.7 0.0 0.6
12:29 15.3 14.8 97 1019.1 3.8 N 10.7 0.0 0.6
12:30 15.3 14.8 97 1019.3 5.4 NW 10.7 0.0 0.6
12:31 15.2 14.7 97 1019.5 6.0 NW 10.7 0.0 0.6
12:32 15.2 14.7 97 1019.3 7.6 NW 10.7 0.0 0.6
12:33 15.3 14.8 97 1019.5 3.8 NW 10.7 0.0 0.6
12:34 15.3 14.8 97 1019.4 9.2 N 10.7 0.0 0.6
12:36 15.5 14.9 96 1019.4 5.4 NW 9.2 0.0 0.6
12:37 15.5 14.9 96 1019.4 6.0 N 9.2 0.0 0.6
12:38 15.7 15.1 96 1019.4 3.1 N 9.2 0.0 0.6
12:39 15.8 15.2 96 1019.4 6.0 NW 9.2 0.0 0.6
12:40 15.8 15.0 95 1019.6 3.8 NE 9.2 0.0 0.6
12:41 15.9 14.9 94 1019.6 6.0 NW 9.2 0.0 0.6
12:42 16.0 15.0 94 1019.6 4.5 NW 9.2 0.0 0.6
12:43 16.0 15.0 94 1019.7 3.8 SW 9.2 0.0 0.6
12:44 16.1 15.0 93 1019.6 1.6 N 9.2 0.0 0.6
12:45 16.2 15.1 93 1019.5 0.0 NW 6.9 0.0 0.6
12:46 16.2 15.2 94 1019.6 0.0 NW 6.9 0.0 0.6
12:47 16.3 15.3 94 1019.5 2.2 N 6.9 0.0 0.6
12:48 16.3 15.2 93 1019.4 0.0 SE 6.0 0.0 0.6
12:49 16.3 15.2 93 1019.4 0.0 SE 6.0 0.0 0.6
12:50 16.2 15.1 93 1019.5 6.0 NW 6.0 0.0 0.6
12:51 16.2 15.1 93 1019.5 1.6 N 6.0 0.0 0.6
12:52 16.2 15.1 93 1019.5 0.0 NW 6.0 0.0 0.6
12:53 16.1 15.0 93 1019.6 0.7 N 6.0 0.0 0.6
12:55 16.0 14.9 93 1019.5 4.5 N 7.6 0.0 0.6
12:56 16.0 14.9 93 1019.5 4.5 SW 7.6 0.0 0.6
12:57 16.0 14.9 93 1019.4 5.4 NW 7.6 0.0 0.6
12:58 15.9 14.8 93 1019.4 7.6 N 7.6 0.0 0.6
12:59 15.8 14.7 93 1019.6 7.6 NE 7.6 0.0 0.6
13:00 15.8 14.7 93 1019.6 3.8 NW 7.6 0.0 0.6
13:01 15.8 14.7 93 1019.6 3.8 NW 7.6 0.0 0.6
13:02 15.7 14.4 92 1019.6 5.4 NW 7.6 0.0 0.6
13:03 15.6 14.3 92 1019.6 4.5 N 7.6 0.0 0.6
13:04 15.6 14.3 92 1019.6 4.5 N 7.6 0.0 0.6
13:05 15.7 14.2 91 1019.5 8.3 NW 8.3 0.0 0.6
13:06 15.7 14.4 92 1019.7 7.6 NW 8.3 0.0 0.6
13:07 15.7 14.4 92 1019.7 5.4 NE 8.3 0.0 0.6
13:08 15.7 14.4 92 1019.6 4.5 NE 8.3 0.0 0.6
13:09 15.8 14.5 92 1019.7 8.3 NNE 8.3 0.0 0.6
13:10 15.8 14.5 92 1019.5 9.2 NW 9.2 0.0 0.6
13:11 15.7 14.2 91 1019.5 6.9 SW 9.2 0.0 0.6
13:12 15.7 14.1 90 1019.5 6.0 NW 9.2 0.0 0.6
13:13 15.7 14.1 90 1019.4 4.5 W 9.2 0.0 0.6
13:14 15.7 14.2 91 1019.7 4.5 SW 9.2 0.0 0.6
13:15 15.8 14.3 91 1019.5 5.4 N 9.2 0.0 0.6
13:16 15.8 14.3 91 1019.5 5.4 N 9.2 0.0 0.6
13:17 15.8 14.3 91 1019.6 5.4 WSW 9.2 0.0 0.6
13:18 15.9 14.3 90 1019.5 4.5 N 9.2 0.0 0.6
13:19 16.0 14.4 90 1019.4 6.0 W 9.2 0.0 0.6
13:20 16.0 14.4 90 1019.6 3.8 NW 9.2 0.0 0.6
13:21 16.0 14.4 90 1019.4 3.1 N 6.9 0.0 0.6
13:22 16.1 14.5 90 1019.4 5.4 N 6.0 0.0 0.6
13:23 16.1 14.5 90 1019.5 7.6 N 7.6 0.0 0.6
13:24 16.2 14.4 89 1019.6 6.0 N 7.6 0.0 0.6
13:26 16.1 14.3 89 1019.5 6.0 NW 7.6 0.0 0.6
13:27 16.1 14.1 88 1019.4 6.0 NE 7.6 0.0 0.6
13:28 16.1 14.1 88 1019.5 5.4 N 7.6 0.0 0.6
13:29 16.1 14.1 88 1019.4 5.4 N 7.6 0.0 0.6
13:30 16.1 13.9 87 1019.5 6.9 NW 7.6 0.0 0.6
13:31 16.1 13.9 87 1019.3 4.5 NW 7.6 0.0 0.6
13:32 16.1 13.9 87 1019.3 4.5 NW 7.6 0.0 0.6
13:33 16.1 13.8 86 1019.3 6.9 NW 6.9 0.0 0.6
13:34 16.1 13.9 87 1019.3 6.0 N 6.9 0.0 0.6
13:35 16.1 13.9 87 1019.5 9.8 NNW 9.8 0.0 0.6
13:36 16.1 13.9 87 1019.4 9.2 NNE 9.8 0.0 0.6
13:37 16.1 13.9 87 1019.3 1.6 N 9.8 0.0 0.6
13:38 16.1 13.9 87 1019.4 5.4 NW 9.8 0.0 0.6
13:39 16.1 13.9 87 1019.5 0.0 N 9.8 0.0 0.6
13:40 16.1 13.9 87 1019.4 9.8 N 9.8 0.0 0.6
13:41 16.0 13.8 87 1019.6 4.5 N 9.8 0.0 0.6
13:42 16.0 13.8 87 1019.3 1.6 N 9.8 0.0 0.6
13:43 16.0 13.8 87 1019.5 0.0 N 9.8 0.0 0.6
13:44 16.0 13.8 87 1019.5 0.0 N 9.8 0.0 0.6
13:45 15.9 13.7 87 1019.4 4.5 N 9.8 0.0 0.6
13:46 15.9 13.7 87 1019.3 4.5 NW 9.8 0.0 0.6
13:47 15.8 13.6 87 1019.4 7.6 NW 9.8 0.0 0.6
13:48 15.8 13.6 87 1019.4 6.0 N 9.8 0.0 0.6
13:49 15.8 13.8 88 1019.4 2.2 SW 9.8 0.0 0.6
13:50 15.8 13.8 88 1019.4 6.9 NW 9.8 0.0 0.6
13:51 15.7 13.7 88 1019.4 5.4 S 7.6 0.0 0.6
13:52 15.7 13.7 88 1019.4 7.6 S 7.6 0.0 0.6
13:53 15.7 13.7 88 1019.3 7.6 WNW 7.6 0.0 0.6
13:54 15.7 13.7 88 1019.3 6.9 NW 7.6 0.0 0.6
13:55 15.6 13.6 88 1019.3 4.5 N 8.3 0.0 0.6
13:56 15.6 13.6 88 1019.3 3.1 SW 8.3 0.0 0.6
13:57 15.6 13.6 88 1019.4 5.4 WNW 8.3 0.0 0.6
13:58 15.6 13.6 88 1019.3 6.0 NE 8.3 0.0 0.6
13:59 15.6 13.6 88 1019.3 0.0 N 8.3 0.0 0.6
14:00 15.6 13.6 88 1019.4 6.0 N 8.3 0.0 0.6
14:01 15.5 13.5 88 1019.4 7.6 S 8.3 0.0 0.6
14:02 15.5 13.5 88 1019.3 4.5 S 8.3 0.0 0.6
14:03 15.5 13.5 88 1019.2 4.5 NW 8.3 0.0 0.6
14:05 15.5 13.5 88 1019.4 4.5 N 8.3 0.0 0.6
14:06 15.4 13.4 88 1019.5 4.5 NW 7.6 0.0 0.6
14:07 15.4 13.4 88 1019.3 3.1 N 7.6 0.0 0.6
14:08 15.4 13.4 88 1019.4 0.7 W 7.6 0.0 0.6
14:09 15.4 13.4 88 1019.2 3.1 N 7.6 0.0 0.6
14:10 15.4 13.4 88 1019.2 5.4 NW 7.6 0.0 0.6
14:11 15.4 13.4 88 1019.3 1.6 N 7.6 0.0 0.6
14:12 15.4 13.6 89 1019.5 5.4 N 6.0 0.0 0.6
14:13 15.4 13.4 88 1019.3 3.1 NE 6.0 0.0 0.6
14:14 15.4 13.6 89 1019.5 5.4 N 5.4 0.0 0.6
14:15 15.3 13.5 89 1019.4 6.0 N 6.0 0.0 0.6
14:16 15.3 13.5 89 1019.4 0.0 N 6.0 0.0 0.6
14:17 15.3 13.5 89 1019.4 1.6 NW 6.0 0.0 0.6
14:18 15.3 13.5 89 1019.3 1.6 NW 6.0 0.0 0.6
14:19 15.3 13.5 89 1019.3 0.0 ENE 6.0 0.0 0.6
14:20 15.3 13.5 89 1019.3 0.0 W 6.0 0.0 0.6
14:21 15.3 13.5 89 1019.5 5.4 WNW 6.0 0.0 0.6
14:22 15.3 13.5 89 1019.4 3.8 NW 6.0 0.0 0.6
14:24 15.2 13.4 89 1019.5 8.3 W 8.3 0.0 0.6
14:25 15.2 13.4 89 1019.4 0.0 N 8.3 0.0 0.6
14:26 15.2 13.4 89 1019.3 0.0 N 8.3 0.0 0.6
14:27 15.2 13.4 89 1019.6 3.1 N 8.3 0.0 0.6
14:28 15.2 13.4 89 1019.4 0.7 SW 8.3 0.0 0.6
14:29 15.1 13.3 89 1019.4 6.9 NE 8.3 0.0 0.6
14:31 15.1 13.3 89 1019.5 0.0 NW 8.3 0.0 0.6
14:32 15.1 13.3 89 1019.5 0.0 NW 8.3 0.0 0.6
14:33 15.1 13.3 89 1019.5 0.0 WNW 8.3 0.0 0.6
14:34 15.1 13.3 89 1019.5 0.0 W 6.9 0.0 0.6
14:35 15.1 13.3 89 1019.5 3.1 N 6.9 0.0 0.6
14:36 15.1 13.3 89 1019.6 8.3 N 8.3 0.0 0.6
14:37 15.1 13.3 89 1019.5 11.4 NE 11.4 0.0 0.6
14:38 15.1 13.3 89 1019.6 3.1 N 11.4 0.0 0.6
14:39 15.0 13.2 89 1019.7 3.8 N 11.4 0.0 0.6
14:40 15.0 13.2 89 1019.6 6.9 N 11.4 0.0 0.6
14:41 15.0 13.2 89 1019.5 0.0 N 11.4 0.0 0.6
14:42 15.0 13.2 89 1019.6 3.1 N 11.4 0.0 0.6
14:43 15.0 13.2 89 1019.6 3.8 NW 11.4 0.0 0.6
14:44 15.0 13.2 89 1019.6 3.1 NW 11.4 0.0 0.6
14:45 15.0 13.2 89 1019.6 3.8 NW 11.4 0.0 0.6
14:46 15.0 13.2 89 1019.6 4.5 ENE 11.4 0.0 0.6
14:47 15.0 13.2 89 1019.5 5.4 N 6.9 0.0 0.6
14:48 14.9 13.1 89 1019.5 7.6 N 7.6 0.0 0.6
14:49 14.9 13.1 89 1019.5 4.5 NE 7.6 0.0 0.6
14:50 14.9 13.1 89 1019.6 0.0 NE 7.6 0.0 0.6
14:51 14.9 13.1 89 1019.5 5.4 NE 7.6 0.0 0.6
14:52 14.9 13.1 89 1019.6 2.2 N 7.6 0.0 0.6
14:53 14.9 13.1 89 1019.6 1.6 E 7.6 0.0 0.6
14:54 14.9 13.1 89 1019.6 0.0 N 7.6 0.0 0.6
14:56 14.9 13.1 89 1019.7 6.0 N 7.6 0.0 0.6
14:57 14.9 13.1 89 1019.7 1.6 NE 8.3 0.0 0.6
14:58 14.9 13.1 89 1019.8 6.9 N 8.3 0.0 0.6
14:59 14.9 13.1 89 1019.6 0.0 N 8.3 0.0 0.6
15:00 14.8 13.0 89 1019.7 0.0 W 8.3 0.0 0.6
15:01 14.8 13.0 89 1019.7 0.0 W 8.3 0.0 0.6
15:02 14.8 13.0 89 1019.7 3.1 NW 8.3 0.0 0.6
15:03 14.8 13.0 89 1019.6 0.0 N 8.3 0.0 0.6
15:04 14.8 13.0 89 1019.7 0.0 NW 8.3 0.0 0.6
15:05 14.8 13.0 89 1019.7 0.0 NE 8.3 0.0 0.6
15:06 14.8 13.0 89 1019.7 3.1 W 8.3 0.0 0.6
15:07 14.8 13.0 89 1019.6 0.0 NW 6.9 0.0 0.6
15:08 14.8 13.0 89 1019.8 5.4 N 5.4 0.0 0.6
15:09 14.8 13.0 89 1019.8 0.0 E 5.4 0.0 0.6
15:10 14.8 13.0 89 1019.6 0.0 N 5.4 0.0 0.6
15:11 14.8 13.0 89 1019.7 6.0 N 6.0 0.0 0.6
15:12 14.8 13.0 89 1019.7 8.3 NW 8.3 0.0 0.6
15:13 14.8 13.0 89 1019.8 0.0 N 8.3 0.0 0.6
15:14 14.7 12.9 89 1019.7 2.2 NE 8.3 0.0 0.6
15:15 14.7 12.9 89 1019.8 4.5 N 8.3 0.0 0.6
15:16 14.7 12.9 89 1019.7 5.4 N 8.3 0.0 0.6
15:17 14.7 12.9 89 1019.8 0.0 W 8.3 0.0 0.6
15:18 14.7 12.9 89 1019.7 6.0 NE 8.3 0.0 0.6
15:19 14.7 12.9 89 1019.8 3.1 NW 8.3 0.0 0.6
15:20 14.7 12.9 89 1019.8 0.7 N 8.3 0.0 0.6
15:21 14.7 12.9 89 1019.9 0.0 WNW 8.3 0.0 0.6
15:22 14.7 12.9 89 1019.9 5.4 W 8.3 0.0 0.6
15:23 14.7 12.9 89 1019.8 9.2 N 9.2 0.0 0.6
15:25 14.7 12.9 89 1020.0 0.0 N 9.2 0.0 0.6
15:26 14.6 12.8 89 1020.0 1.6 S 9.2 0.0 0.6
15:27 14.6 12.8 89 1020.0 0.0 NW 9.2 0.0 0.6
15:28 14.6 12.8 89 1020.0 0.0 NW 9.2 0.0 0.6
15:29 14.6 12.8 89 1020.0 4.5 N 9.2 0.0 0.6
15:30 14.6 12.8 89 1020.0 1.6 NW 9.2 0.0 0.6
15:31 14.6 12.8 89 1020.0 3.1 NW 9.2 0.0 0.6
15:32 14.6 12.8 89 1020.1 0.0 NW 9.2 0.0 0.6
15:33 14.5 12.7 89 1020.1 1.6 NW 4.5 0.0 0.6
15:34 14.5 12.7 89 1019.9 3.1 NE 4.5 0.0 0.6
15:35 14.5 12.7 89 1020.2 0.0 NE 4.5 0.0 0.6
15:36 14.5 12.7 89 1020.2 0.0 NE 4.5 0.0 0.6
15:37 14.5 12.7 89 1020.0 0.0 WNW 4.5 0.0 0.6
15:38 14.5 12.7 89 1019.9 0.0 N 4.5 0.0 0.6
15:39 14.5 12.7 89 1020.0 0.0 SE 3.1 0.0 0.6
15:40 14.5 12.7 89 1020.0 0.0 WNW 3.1 0.0 0.6
15:41 14.4 12.6 89 1020.0 0.0 N 3.1 0.0 0.6
15:42 14.4 12.6 89 1020.1 0.0 NW 3.1 0.0 0.6
15:43 14.4 12.6 89 1020.2 0.0 E 3.1 0.0 0.6
15:44 14.4 12.6 89 1020.2 0.0 E 3.1 0.0 0.6
15:45 14.4 12.6 89 1020.1 0.0 N 3.1 0.0 0.6
15:46 14.4 12.6 89 1020.1 0.0 N 0.7 0.0 0.6
15:47 14.4 12.6 89 1020.0 0.0 NW 0.7 0.0 0.6
15:48 14.4 12.6 89 1020.1 0.0 SW 0.7 0.0 0.6
15:50 14.4 12.6 89 1020.1 0.0 N 0.0 0.0 0.6
15:51 14.4 12.8 90 1020.1 0.0 N 0.0 0.0 0.6
15:52 14.4 12.6 89 1020.1 0.0 N 0.0 0.0 0.6
15:53 14.4 12.6 89 1020.0 0.0 E 0.0 0.0 0.6
15:54 14.4 12.8 90 1020.1 0.0 WNW 0.0 0.0 0.6
15:55 14.4 12.8 90 1020.2 0.0 SW 0.0 0.0 0.6
15:56 14.4 12.8 90 1020.1 0.0 NE 0.0 0.0 0.6
15:57 14.4 12.8 90 1020.1 0.0 N 0.0 0.0 0.6
15:58 14.3 12.7 90 1020.0 0.0 N 3.1 0.0 0.6
15:59 14.3 12.7 90 1020.1 0.0 E 3.1 0.0 0.6
16:00 14.4 12.8 90 1020.1 0.0 NW 3.1 0.0 0.6
16:01 14.4 12.8 90 1020.1 0.0 NW 3.1 0.0 0.6
16:02 14.3 12.7 90 1020.1 0.0 NE 3.1 0.0 0.6
16:03 14.3 12.7 90 1020.1 0.0 W 3.1 0.0 0.6
16:04 14.3 12.7 90 1020.0 0.0 N 3.1 0.0 0.6
16:05 14.3 12.7 90 1020.1 0.0 N 3.1 0.0 0.6
16:06 14.3 12.7 90 1020.0 0.0 NW 3.1 0.0 0.6
16:07 14.3 12.7 90 1020.1 0.0 NW 3.1 0.0 0.6
16:08 14.3 12.7 90 1020.1 0.0 SW 3.1 0.0 0.6
16:09 14.2 12.6 90 1020.1 0.0 N 0.0 0.0 0.6
16:10 14.3 12.7 90 1020.2 0.0 N 0.0 0.0 0.6
16:11 14.3 12.7 90 1020.2 0.0 NW 0.0 0.0 0.6
16:12 14.3 12.7 90 1020.2 0.0 NE 0.0 0.0 0.6
16:14 14.3 12.7 90 1020.2 5.4 SW 5.4 0.0 0.6
16:15 14.2 12.6 90 1020.3 0.0 N 5.4 0.0 0.6
16:16 14.3 12.7 90 1020.2 0.0 N 5.4 0.0 0.6
16:18 14.2 12.6 90 1020.4 0.0 NE 5.4 0.0 0.6
16:19 14.2 12.6 90 1020.3 0.0 N 5.4 0.0 0.6
16:20 14.2 12.6 90 1020.3 0.0 NE 5.4 0.0 0.6
16:21 14.2 12.6 90 1020.4 0.0 N 5.4 0.0 0.6
16:22 14.2 12.6 90 1020.3 0.0 NW 5.4 0.0 0.6
16:23 14.2 12.6 90 1020.3 0.0 WNW 5.4 0.0 0.6
16:24 14.2 12.6 90 1020.3 0.0 NW 0.7 0.0 0.6
16:25 14.2 12.6 90 1020.3 5.4 NW 5.4 0.0 0.6
16:26 14.2 12.6 90 1020.4 1.6 NW 9.2 0.0 0.6
16:27 14.2 12.6 90 1020.4 0.0 N 9.2 0.0 0.6
16:28 14.2 12.6 90 1020.4 0.0 NW 9.2 0.0 0.6
16:29 14.2 12.6 90 1020.4 5.4 NW 9.2 0.0 0.6
16:30 14.1 12.5 90 1020.3 5.4 NW 9.2 0.0 0.6
16:31 14.1 12.5 90 1020.3 5.4 NW 9.2 0.0 0.6
16:32 14.2 12.6 90 1020.5 0.0 NW 9.2 0.0 0.6
16:33 14.1 12.5 90 1020.3 6.0 NW 9.2 0.0 0.6
16:34 14.1 12.5 90 1020.5 0.0 NW 9.2 0.0 0.6
16:35 14.1 12.5 90 1020.4 0.0 N 9.2 0.0 0.6
16:36 14.1 12.5 90 1020.6 0.0 NE 9.2 0.0 0.6
16:38 14.1 12.5 90 1020.5 8.3 NW 8.3 0.0 0.6
16:39 14.1 12.5 90 1020.4 0.7 N 8.3 0.0 0.6
16:40 14.1 12.5 90 1020.5 0.0 N 8.3 0.0 0.6
16:41 14.1 12.5 90 1020.5 0.0 SE 8.3 0.0 0.6
16:42 14.1 12.7 91 1020.5 0.0 N 8.3 0.0 0.6
16:43 14.1 12.7 91 1020.5 6.9 WNW 8.3 0.0 0.6
16:45 14.0 12.6 91 1020.5 2.2 N 8.3 0.0 0.6
16:46 14.0 12.6 91 1020.5 0.7 NE 8.3 0.0 0.6
16:47 14.0 12.6 91 1020.5 0.7 SW 8.3 0.0 0.6
16:48 14.0 12.6 91 1020.5 0.0 NW 8.3 0.0 0.6
16:49 14.0 12.6 91 1020.6 5.4 N 6.9 0.0 0.6
16:50 14.0 12.6 91 1020.5 1.6 N 6.9 0.0 0.6
16:51 14.0 12.4 90 1020.5 6.9 NE 6.9 0.0 0.6
16:53 14.0 12.6 91 1020.6 4.5 NE 7.6 0.0 0.6
16:54 14.0 12.4 90 1020.6 0.0 NE 7.6 0.0 0.6
16:56 13.9 12.5 91 1020.6 4.5 NNW 7.6 0.0 0.6
16:57 13.9 12.5 91 1020.4 5.4 NW 7.6 0.0 0.6
16:58 13.9 12.5 91 1020.6 6.9 SW 8.3 0.0 0.6
16:59 13.9 12.3 90 1020.6 9.2 N 9.2 0.0 0.6
17:00 13.9 12.5 91 1020.7 8.3 N 9.2 0.0 0.6
17:01 13.9 12.5 91 1020.7 8.3 N 9.2 0.0 0.6
17:02 13.9 12.5 91 1020.7 3.8 NW 9.2 0.0 0.6
17:03 13.9 12.5 91 1020.8 5.4 NW 9.2 0.0 0.6
17:04 13.9 12.5 91 1020.5 6.9 NW 9.2 0.0 0.6
17:05 13.9 12.5 91 1020.6 7.6 NW 9.2 0.0 0.6
17:06 13.8 12.4 91 1020.7 12.1 N 12.1 0.0 0.6
17:07 13.8 12.4 91 1020.7 6.0 SW 12.1 0.0 0.6
17:08 13.8 12.4 91 1020.8 6.9 WNW 12.1 0.0 0.6
17:09 13.9 12.5 91 1020.5 5.4 NW 12.1 0.0 0.6
17:10 13.8 12.4 91 1020.7 9.2 N 12.1 0.0 0.6
17:11 13.8 12.4 91 1020.8 7.6 NE 12.1 0.0 0.6
17:12 13.8 12.4 91 1020.7 8.3 NW 12.1 0.0 0.6
17:13 13.8 12.4 91 1020.7 6.9 SW 12.1 0.0 0.6
17:14 13.8 12.4 91 1020.8 6.9 N 12.1 0.0 0.6
17:15 13.8 12.4 91 1020.7 5.4 NE 12.1 0.0 0.6
17:16 13.8 12.4 91 1020.7 5.4 NE 12.1 0.0 0.6
17:17 13.8 12.4 91 1020.8 6.0 WNW 9.8 0.0 0.6
17:18 13.8 12.4 91 1020.8 3.1 NW 9.8 0.0 0.6
17:19 13.8 12.4 91 1020.6 4.5 NW 9.8 0.0 0.6
17:20 13.8 12.4 91 1020.8 6.0 WNW 9.8 0.0 0.6
17:21 13.8 12.4 91 1020.8 5.4 WNW 8.3 0.0 0.6
17:23 13.7 12.3 91 1020.8 9.2 N 9.2 0.0 0.6
17:24 13.7 12.3 91 1020.7 12.1 NW 12.1 0.0 0.6
17:25 13.7 12.3 91 1020.9 5.4 NE 12.1 0.0 0.6
17:26 13.7 12.3 91 1020.9 5.4 N 12.1 0.0 0.6
17:27 13.7 12.3 91 1020.7 4.5 N 12.1 0.0 0.6
17:28 13.7 12.3 91 1020.9 3.8 E 12.1 0.0 0.6
17:29 13.7 12.3 91 1020.8 5.4 N 12.1 0.0 0.6
17:30 13.7 12.3 91 1020.9 9.2 NW 12.1 0.0 0.6
17:31 13.7 12.3 91 1020.8 8.3 NW 12.1 0.0 0.6
17:32 13.7 12.3 91 1020.9 6.0 N 12.1 0.0 0.6
17:33 13.6 12.2 91 1020.9 11.4 NW 12.1 0.0 0.6
17:34 13.6 12.2 91 1020.9 3.8 NW 11.4 0.0 0.6
17:35 13.6 12.2 91 1020.8 6.9 N 11.4 0.0 0.6
17:36 13.6 12.2 91 1020.9 9.8 NW 11.4 0.0 0.6
17:37 13.6 12.2 91 1020.9 6.0 NW 11.4 0.0 0.6
17:38 13.6 12.2 91 1020.9 6.0 N 11.4 0.0 0.6
17:39 13.6 12.2 91 1021.1 6.0 ENE 11.4 0.0 0.6
17:40 13.6 12.2 91 1021.2 6.9 N 11.4 0.0 0.6
17:42 13.5 12.1 91 1021.0 7.6 N 11.4 0.0 0.6
17:43 13.5 12.1 91 1021.1 6.0 WNW 11.4 0.0 0.6
17:44 13.5 12.1 91 1021.0 5.4 N 9.8 0.0 0.6
17:45 13.5 12.1 91 1021.1 8.3 NE 9.8 0.0 0.6
17:46 13.5 12.1 91 1021.2 9.2 NW 9.8 0.0 0.6
17:47 13.4 12.0 91 1021.1 5.4 NW 9.8 0.0 0.6
17:48 13.4 12.0 91 1021.1 3.1 NE 9.8 0.0 0.6
17:49 13.4 12.0 91 1021.1 6.0 NE 9.8 0.0 0.6
17:50 13.4 12.0 91 1021.2 3.8 WNW 9.8 0.0 0.6
17:51 13.4 12.0 91 1021.2 6.9 NE 9.8 0.0 0.6
17:52 13.4 12.0 91 1021.2 4.5 NE 9.8 0.0 0.6
17:53 13.4 12.0 91 1021.2 6.0 NW 9.8 0.0 0.6
17:54 13.4 12.0 91 1021.2 6.0 NW 9.8 0.0 0.6
17:55 13.4 12.0 91 1021.1 5.4 NW 9.8 0.0 0.6
17:56 13.4 12.0 91 1021.3 4.5 NW 9.2 0.0 0.6
17:57 13.4 12.0 91 1021.3 5.4 NW 6.9 0.0 0.6
17:58 13.4 12.0 91 1021.3 5.4 NE 6.9 0.0 0.6
17:59 13.4 12.0 91 1021.4 4.5 N 6.9 0.0 0.6
18:00 13.4 12.0 91 1021.3 3.1 NE 6.9 0.0 0.6
18:02 13.3 11.9 91 1021.3 2.2 NE 6.0 0.0 0.6
18:03 13.3 11.9 91 1021.5 2.2 NW 6.0 0.0 0.6
18:04 13.3 11.9 91 1021.3 6.0 NW 6.0 0.0 0.6
18:05 13.3 11.9 91 1021.3 2.2 E 6.0 0.0 0.6
18:06 13.3 11.9 91 1021.4 4.5 NW 6.0 0.0 0.6
18:07 13.3 11.9 91 1021.5 3.8 WNW 6.0 0.0 0.6
18:08 13.2 11.8 91 1021.5 6.0 NW 6.0 0.0 0.6
18:09 13.2 11.8 91 1021.6 3.1 NE 6.0 0.0 0.6
18:10 13.2 11.8 91 1021.5 4.5 N 6.0 0.0 0.6
18:11 13.2 11.8 91 1021.5 6.0 N 6.0 0.0 0.6
18:12 13.2 11.8 91 1021.5 5.4 N 6.0 0.0 0.6
18:13 13.2 11.8 91 1021.7 6.0 N 6.0 0.0 0.6
18:14 13.2 11.8 91 1021.8 4.5 E 6.0 0.0 0.6
18:15 13.1 11.7 91 1021.6 3.1 WNW 6.0 0.0 0.6
18:16 13.1 11.7 91 1021.7 3.8 E 6.0 0.0 0.6
18:17 13.1 11.7 91 1021.6 4.5 NW 6.0 0.0 0.6
18:18 13.1 11.7 91 1021.7 4.5 NE 6.0 0.0 0.6
18:19 13.1 11.7 91 1021.7 3.8 NW 6.0 0.0 0.6
18:20 13.0 11.6 91 1021.7 1.6 E 7.6 0.0 0.6
18:21 13.0 11.6 91 1021.8 2.2 NW 7.6 0.0 0.6
18:23 13.0 11.6 91 1021.8 3.8 SW 7.6 0.0 0.6
18:24 13.0 11.6 91 1021.9 3.8 NE 7.6 0.0 0.6
18:25 13.0 11.6 91 1021.8 4.5 N 7.6 0.0 0.6
18:26 12.9 11.5 91 1021.9 3.1 NW 7.6 0.0 0.6
18:27 12.9 11.5 91 1021.8 3.8 NW 7.6 0.0 0.6
18:28 12.9 11.5 91 1021.7 2.2 NW 7.6 0.0 0.6
18:29 12.9 11.5 91 1021.8 4.5 NW 7.6 0.0 0.6
18:30 12.9 11.5 91 1021.8 6.9 N 6.9 0.0 0.6
18:31 12.8 11.4 91 1021.8 6.9 NE 6.9 0.0 0.6
18:32 12.8 11.4 91 1021.8 6.9 NW 6.9 0.0 0.6
18:33 12.8 11.4 91 1021.8 3.8 W 6.9 0.0 0.6
18:34 12.8 11.4 91 1021.9 3.8 N 6.9 0.0 0.6
18:35 12.8 11.5 92 1021.8 6.9 NNE 6.9 0.0 0.6
18:36 12.8 11.5 92 1021.9 3.8 NW 6.9 0.0 0.6
18:37 12.8 11.5 92 1021.8 4.5 NE 6.9 0.0 0.6
18:38 12.8 11.5 92 1021.8 5.4 N 6.9 0.0 0.6
18:39 12.7 11.4 92 1021.8 4.5 N 6.9 0.0 0.6
18:40 12.7 11.4 92 1022.0 4.5 NE 6.9 0.0 0.6
18:42 12.7 11.4 92 1021.9 4.5 NW 6.9 0.0 0.6
18:43 12.7 11.4 92 1022.0 3.8 N 6.9 0.0 0.6
18:44 12.7 11.4 92 1021.8 0.7 E 6.9 0.0 0.6
18:45 12.6 11.3 92 1022.0 4.5 E 5.4 0.0 0.6
18:46 12.6 11.3 92 1022.0 6.9 NW 6.9 0.0 0.6
18:47 12.6 11.3 92 1022.1 8.3 N 8.3 0.0 0.6
18:48 12.6 11.3 92 1022.1 2.2 W 8.3 0.0 0.6
18:49 12.6 11.3 92 1022.0 8.3 N 8.3 0.0 0.6
18:50 12.5 11.2 92 1022.1 6.0 N 8.3 0.0 0.6
18:51 12.5 11.2 92 1022.1 6.0 NE 8.3 0.0 0.6
18:52 12.5 11.2 92 1021.9 3.8 SW 8.3 0.0 0.6
18:53 12.5 11.2 92 1022.0 2.2 ENE 8.3 0.0 0.6
18:54 12.5 11.2 92 1022.2 3.8 NW 8.3 0.0 0.6
18:55 12.5 11.2 92 1022.0 6.0 N 8.3 0.0 0.6
18:56 12.4 11.1 92 1021.9 3.8 N 8.3 0.0 0.6
18:57 12.4 11.1 92 1021.9 3.8 NE 8.3 0.0 0.6
18:58 12.4 11.1 92 1022.1 2.2 NE 8.3 0.0 0.6
18:59 12.4 11.1 92 1022.0 2.2 N 8.3 0.0 0.6
19:00 12.4 11.1 92 1022.0 5.4 ESE 6.0 0.0 0.6
19:02 12.4 11.1 92 1021.9 5.4 ESE 6.0 0.0 0.6
19:03 12.4 11.1 92 1021.9 5.4 ESE 6.0 0.0 0.6
19:04 12.4 11.1 92 1022.0 5.4 ESE 6.0 0.0 0.6
19:05 12.4 11.1 92 1022.1 5.4 ESE 5.4 0.0 0.6
19:06 12.3 11.2 93 1022.0 0.7 SE 5.4 0.0 0.6
19:07 12.3 11.2 93 1022.2 1.6 ENE 5.4 0.0 0.6
19:09 12.3 11.2 93 1022.1 3.8 N 5.4 0.0 0.6
19:10 12.2 11.1 93 1022.1 2.2 E 5.4 0.0 0.6
19:11 12.2 11.1 93 1022.3 3.8 N 5.4 0.0 0.6
19:12 12.2 11.1 93 1022.2 4.5 NW 5.4 0.0 0.6
19:13 12.2 11.1 93 1022.1 6.0 N 6.0 0.0 0.6
19:14 12.2 11.1 93 1022.2 4.5 W 6.0 0.0 0.6
19:15 12.2 11.1 93 1022.1 3.8 N 6.0 0.0 0.6
19:16 12.2 11.1 93 1022.3 5.4 N 6.0 0.0 0.6
19:17 12.2 11.1 93 1022.3 3.8 SE 6.0 0.0 0.6
19:18 12.1 11.0 93 1022.2 4.5 NE 6.0 0.0 0.6
19:19 12.1 11.0 93 1022.3 3.8 NW 6.0 0.0 0.6
19:20 12.1 11.0 93 1022.1 3.8 N 6.0 0.0 0.6
19:21 12.1 11.0 93 1022.1 8.3 NW 8.3 0.0 0.6
19:22 12.1 11.0 93 1022.3 3.8 NW 8.3 0.0 0.6
19:23 12.1 11.0 93 1022.3 2.2 SW 8.3 0.0 0.6
19:24 12.1 11.0 93 1022.4 5.4 NW 8.3 0.0 0.6
19:25 12.1 11.0 93 1022.4 3.8 NW 8.3 0.0 0.6
19:26 12.1 11.0 93 1022.3 3.8 N 8.3 0.0 0.6
19:27 12.1 11.0 93 1022.3 5.4 WSW 8.3 0.0 0.6
19:28 12.1 11.0 93 1022.3 5.4 NE 8.3 0.0 0.6
19:29 12.1 11.0 93 1022.4 7.6 NW 8.3 0.0 0.6
19:30 12.1 11.0 93 1022.3 4.5 NE 8.3 0.0 0.6
19:31 12.1 11.0 93 1022.3 6.9 NW 7.6 0.0 0.6
19:32 12.1 11.0 93 1022.3 4.5 WNW 7.6 0.0 0.6
19:33 12.1 11.0 93 1022.3 4.5 NW 8.3 0.0 0.6
19:34 12.1 11.2 94 1022.4 4.5 N 8.3 0.0 0.6
19:35 12.1 11.2 94 1022.4 5.4 N 8.3 0.0 0.6
19:36 12.1 11.2 94 1022.3 2.2 SW 8.3 0.0 0.6
19:37 12.1 11.2 94 1022.3 4.5 WSW 8.3 0.0 0.6
19:38 12.1 11.2 94 1022.4 5.4 N 8.3 0.0 0.6
19:39 12.1 11.2 94 1022.5 6.0 SW 8.3 0.0 0.6
19:40 12.1 11.2 94 1022.3 5.4 WNW 8.3 0.0 0.6
19:41 12.1 11.2 94 1022.5 6.9 NE 8.3 0.0 0.6
19:42 12.1 11.2 94 1022.5 6.9 NE 8.3 0.0 0.6
19:43 12.1 11.2 94 1022.5 6.0 SW 8.3 0.0 0.6
19:44 12.1 11.2 94 1022.5 5.4 NE 8.3 0.0 0.6
19:45 12.1 11.2 94 1022.5 6.0 E 8.3 0.0 0.6
19:46 12.1 11.2 94 1022.4 6.9 E 8.3 0.0 0.6
19:47 12.1 11.2 94 1022.5 6.0 N 8.3 0.0 0.6
19:48 12.1 11.2 94 1022.5 5.4 NW 8.3 0.0 0.6
19:49 12.1 11.2 94 1022.4 7.6 SE 8.3 0.0 0.6
19:50 12.1 11.2 94 1022.4 4.5 SE 8.3 0.0 0.6
19:51 12.1 11.2 94 1022.4 5.4 N 8.3 0.0 0.6
19:52 12.1 11.2 94 1022.6 4.5 E 8.3 0.0 0.6
19:53 12.1 11.2 94 1022.6 4.5 N 8.3 0.0 0.6
19:54 12.1 11.2 94 1022.5 3.8 NE 7.6 0.0 0.6
19:55 12.1 11.2 94 1022.6 3.8 NW 7.6 0.0 0.6
19:56 12.1 11.2 94 1022.4 2.2 N 7.6 0.0 0.6
19:57 12.1 11.2 94 1022.6 3.8 NE 7.6 0.0 0.6
19:58 12.1 11.2 94 1022.6 3.8 W 7.6 0.0 0.6
19:59 12.1 11.2 94 1022.6 5.4 NW 7.6 0.0 0.6
20:00 12.1 11.2 94 1022.6 6.9 NE 6.9 0.0 0.6
20:01 12.1 11.2 94 1022.8 6.0 N 6.9 0.0 0.6
20:02 12.1 11.2 94 1022.7 6.0 N 6.9 0.0 0.6
20:03 12.1 11.2 94 1022.6 6.0 N 6.9 0.0 0.6
20:04 12.1 11.2 94 1022.6 6.0 N 6.9 0.0 0.6
20:05 12.1 11.2 94 1022.6 6.0 N 6.9 0.0 0.6
20:06 12.1 11.2 94 1022.8 5.4 NW 6.9 0.0 0.6
20:07 12.1 11.2 94 1022.8 3.8 N 6.9 0.0 0.6
20:08 12.1 11.2 94 1022.8 2.2 ESE 6.9 0.0 0.6
20:09 12.1 11.2 94 1022.8 5.4 N 6.9 0.0 0.6
20:10 12.0 11.1 94 1022.9 3.8 N 6.0 0.0 0.6
20:11 12.0 11.1 94 1022.9 4.5 N 6.0 0.0 0.6
20:12 12.0 11.1 94 1022.9 3.8 WNW 6.0 0.0 0.6
20:13 12.0 11.1 94 1022.9 3.8 NE 6.0 0.0 0.6
20:14 12.0 11.1 94 1022.9 4.5 NE 6.0 0.0 0.6
20:15 12.0 11.1 94 1022.8 7.6 NE 7.6 0.0 0.6
20:16 12.0 11.1 94 1022.9 6.9 NW 7.6 0.0 0.6
20:17 12.0 11.2 95 1022.8 6.0 N 7.6 0.0 0.6
20:18 12.0 11.1 94 1022.8 3.1 N 7.6 0.0 0.6
20:19 12.0 11.2 95 1023.0 4.5 N 7.6 0.0 0.6
20:20 12.0 11.2 95 1023.1 3.8 N 7.6 0.0 0.6
20:21 12.0 11.2 95 1022.9 5.4 NE 9.8 0.0 0.6
20:22 11.9 11.1 95 1023.1 7.6 N 9.8 0.0 0.6
20:23 12.0 11.2 95 1022.9 4.5 N 9.8 0.0 0.6
20:24 11.9 11.1 95 1023.1 4.5 WNW 9.8 0.0 0.6
20:25 11.9 11.1 95 1023.2 2.2 N 9.8 0.0 0.6
20:26 11.9 11.1 95 1023.0 6.0 SW 9.8 0.0 0.6
20:27 11.9 11.1 95 1023.0 2.2 NE 9.8 0.0 0.6
20:28 11.9 11.1 95 1023.0 7.6 N 9.8 0.0 0.6
20:29 11.9 11.1 95 1023.0 5.4 N 9.8 0.0 0.6
20:31 11.9 11.1 95 1023.1 6.9 ENE 8.3 0.0 0.6
20:32 11.9 11.1 95 1023.3 3.8 NE 8.3 0.0 0.6
20:33 11.9 11.1 95 1023.0 3.8 NE 8.3 0.0 0.6
20:34 11.9 11.1 95 1023.1 6.9 NW 8.3 0.0 0.6
20:35 11.9 11.1 95 1023.1 5.4 NE 8.3 0.0 0.6
20:36 11.9 11.1 95 1023.0 5.4 SE 8.3 0.0 0.6
20:37 11.9 11.1 95 1023.0 9.8 NW 9.8 0.0 0.6
20:38 11.9 11.1 95 1023.1 6.9 NW 9.8 0.0 0.6
20:39 11.9 11.1 95 1023.1 3.8 NW 9.8 0.0 0.6
20:40 11.9 11.1 95 1023.3 5.4 NE 9.8 0.0 0.6
20:41 11.9 11.1 95 1023.2 7.6 N 9.8 0.0 0.6
20:42 11.9 11.1 95 1023.3 2.2 E 9.8 0.0 0.6
20:43 11.9 11.1 95 1023.2 2.2 NW 9.8 0.0 0.6
20:44 11.9 11.1 95 1023.3 6.9 NW 9.8 0.0 0.6
20:45 11.8 11.0 95 1023.2 5.4 NE 9.8 0.0 0.6
20:46 11.9 11.1 95 1023.2 4.5 N 9.8 0.0 0.6
20:47 11.8 11.0 95 1023.1 3.8 N 9.8 0.0 0.6
20:48 11.8 11.0 95 1023.2 5.4 N 7.6 0.0 0.6
20:49 11.8 11.0 95 1023.3 5.4 N 7.6 0.0 0.6
20:50 11.8 11.0 95 1023.3 6.0 NW 7.6 0.0 0.6
20:51 11.8 11.0 95 1023.3 4.5 NE 7.6 0.0 0.6
20:52 11.8 11.0 95 1023.3 3.8 SE 6.9 0.0 0.6
20:53 11.8 11.0 95 1023.2 6.0 NE 6.9 0.0 0.6
20:54 11.8 11.0 95 1023.3 6.0 ENE 6.9 0.0 0.6
20:55 11.8 11.0 95 1023.3 4.5 N 6.0 0.0 0.6
20:56 11.8 11.0 95 1023.3 3.8 NE 6.0 0.0 0.6
20:58 11.8 11.0 95 1023.4 4.5 N 6.0 0.0 0.6
20:59 11.8 11.0 95 1023.4 3.1 N 6.0 0.0 0.6
21:00 11.8 11.0 95 1023.3 5.4 NW 6.0 0.0 0.6
21:01 11.8 11.0 95 1023.4 5.4 NW 6.0 0.0 0.6
21:02 11.8 11.0 95 1023.4 5.4 ENE 6.0 0.0 0.6
21:03 11.7 10.9 95 1023.4 4.5 ENE 6.0 0.0 0.6
21:04 11.7 10.9 95 1023.4 3.8 N 5.4 0.0 0.6
21:05 11.7 10.9 95 1023.4 2.2 N 5.4 0.0 0.6
21:06 11.7 10.9 95 1023.3 4.5 NE 5.4 0.0 0.6
21:07 11.7 10.9 95 1023.4 7.6 NE 7.6 0.0 0.6
21:08 11.7 10.9 95 1023.4 3.1 NE 7.6 0.0 0.6
21:09 11.7 10.9 95 1023.4 6.9 W 7.6 0.0 0.6
21:10 11.7 10.9 95 1023.3 3.8 N 7.6 0.0 0.6
21:11 11.7 10.9 95 1023.4 5.4 NW 7.6 0.0 0.6
21:12 11.7 11.1 96 1023.4 2.2 N 7.6 0.0 0.6
21:13 11.7 10.9 95 1023.5 5.4 S 7.6 0.0 0.6
21:14 11.7 11.1 96 1023.5 5.4 NW 7.6 0.0 0.6
21:15 11.7 11.1 96 1023.4 3.8 N 7.6 0.0 0.6
21:16 11.7 10.9 95 1023.4 3.8 E 7.6 0.0 0.6
21:17 11.7 10.9 95 1023.4 8.3 WNW 8.3 0.0 0.6
21:18 11.7 10.9 95 1023.3 3.1 E 8.3 0.0 0.6
21:19 11.6 11.0 96 1023.4 4.5 NW 8.3 0.0 0.6
21:20 11.6 10.8 95 1023.4 3.8 N 8.3 0.0 0.6
21:21 11.6 11.0 96 1023.5 5.4 WNW 8.3 0.0 0.6
21:22 11.6 11.0 96 1023.4 4.5 N 8.3 0.0 0.6
21:23 11.6 11.0 96 1023.4 4.5 N 8.3 0.0 0.6
21:24 11.6 11.0 96 1023.7 4.5 N 8.3 0.0 0.6
21:25 11.6 11.0 96 1023.5 3.8 N 8.3 0.0 0.6
21:26 11.6 11.0 96 1023.5 1.6 NW 8.3 0.0 0.6
21:27 11.6 11.0 96 1023.5 3.1 NW 8.3 0.0 0.6
21:28 11.6 11.0 96 1023.7 7.6 NW 7.6 0.0 0.6
21:29 11.6 11.0 96 1023.5 6.0 N 7.6 0.0 0.6
21:30 11.6 11.0 96 1023.5 4.5 S 7.6 0.0 0.6
21:31 11.6 11.0 96 1023.5 3.1 E 7.6 0.0 0.6
21:32 11.6 11.0 96 1023.4 6.9 NW 7.6 0.0 0.6
21:33 11.6 11.0 96 1023.5 3.8 NE 7.6 0.0 0.6
21:34 11.6 11.0 96 1023.7 5.4 N 7.6 0.0 0.6
21:35 11.6 11.0 96 1023.6 3.1 N 7.6 0.0 0.6
21:36 11.6 11.0 96 1023.6 4.5 N 7.6 0.0 0.6
21:37 11.6 11.0 96 1023.6 3.8 N 7.6 0.0 0.6
21:38 11.6 11.0 96 1023.7 5.4 WNW 7.6 0.0 0.6
21:39 11.6 11.0 96 1023.6 5.4 NW 6.9 0.0 0.6
21:40 11.6 11.0 96 1023.6 6.0 N 6.9 0.0 0.6
21:41 11.6 11.0 96 1023.6 5.4 NE 6.9 0.0 0.6
21:42 11.6 11.0 96 1023.6 8.3 N 8.3 0.0 0.6
21:43 11.6 11.0 96 1023.6 6.9 N 8.3 0.0 0.6
21:44 11.6 11.0 96 1023.6 6.0 SSW 8.3 0.0 0.6
21:45 11.6 11.0 96 1023.8 5.4 NE 8.3 0.0 0.6
21:46 11.6 11.0 96 1023.6 5.4 NE 8.3 0.0 0.6
21:47 11.5 10.9 96 1023.7 6.0 NW 8.3 0.0 0.6
21:48 11.5 10.9 96 1023.8 5.4 NW 8.3 0.0 0.6
21:49 11.5 10.9 96 1023.6 4.5 WSW 8.3 0.0 0.6
21:50 11.5 10.9 96 1023.7 0.7 NE 8.3 0.0 0.6
21:51 11.5 10.9 96 1023.7 6.0 N 8.3 0.0 0.6
21:52 11.5 10.9 96 1023.8 7.6 NW 8.3 0.0 0.6
21:53 11.5 10.9 96 1023.7 3.1 NW 7.6 0.0 0.6
21:54 11.5 10.9 96 1023.9 2.2 NE 7.6 0.0 0.6
21:55 11.5 10.9 96 1023.7 3.8 NW 7.6 0.0 0.6
21:56 11.5 10.9 96 1023.7 6.9 NW 7.6 0.0 0.6
21:57 11.5 10.9 96 1023.8 5.4 N 7.6 0.0 0.6
21:58 11.5 10.9 96 1023.7 6.0 NW 7.6 0.0 0.6
21:59 11.5 10.9 96 1023.8 5.4 N 7.6 0.0 0.6
22:00 11.5 10.9 96 1023.6 5.4 S 7.6 0.0 0.6
22:01 11.5 10.9 96 1023.6 5.4 S 7.6 0.0 0.6
22:02 11.5 10.9 96 1023.9 5.4 S 7.6 0.0 0.6
22:03 11.5 10.9 96 1023.8 5.4 S 6.9 0.0 0.6
22:04 11.5 10.9 96 1023.9 5.4 S 6.9 0.0 0.6
22:05 11.5 10.9 96 1023.8 5.4 S 6.9 0.0 0.6
22:06 11.5 10.9 96 1023.7 8.3 N 8.3 0.0 0.6
22:07 11.5 10.9 96 1023.8 5.4 N 8.3 0.0 0.6
22:08 11.6 11.0 96 1023.8 6.9 NE 8.3 0.0 0.6
22:09 11.6 11.0 96 1023.8 4.5 E 8.3 0.0 0.6
22:10 11.6 11.0 96 1023.8 3.8 N 8.3 0.0 0.6
22:11 11.6 11.0 96 1024.0 4.5 NE 8.3 0.0 0.6
22:12 11.6 11.0 96 1023.7 6.9 NE 8.3 0.0 0.6
22:13 11.6 11.1 97 1023.8 2.2 NE 8.3 0.0 0.6
22:14 11.6 11.0 96 1023.8 5.4 SE 8.3 0.0 0.6
22:15 11.6 11.0 96 1023.9 3.1 NW 8.3 0.0 0.6
22:16 11.6 11.1 97 1023.9 6.0 W 8.3 0.0 0.6
22:17 11.6 11.0 96 1023.8 5.4 N 6.9 0.0 0.6
22:18 11.6 11.0 96 1023.9 4.5 NW 6.9 0.0 0.6
22:19 11.6 11.0 96 1023.9 4.5 NW 6.9 0.0 0.6
22:20 11.6 11.1 97 1024.0 2.2 N 6.9 0.0 0.6
22:21 11.6 11.1 97 1024.0 3.8 NW 6.9 0.0 0.6
22:22 11.6 11.1 97 1023.9 6.9 NW 6.9 0.0 0.6
22:23 11.6 11.0 96 1023.9 6.0 WNW 6.9 0.0 0.6
22:24 11.6 11.1 97 1024.0 3.8 NW 6.9 0.0 0.6
22:25 11.6 11.0 96 1023.9 4.5 E 6.9 0.0 0.6
22:26 11.6 11.1 97 1023.9 3.8 E 6.9 0.0 0.6
22:27 11.6 11.1 97 1024.0 6.0 NW 6.9 0.0 0.6
22:28 11.6 11.1 97 1024.0 6.9 NW 6.9 0.0 0.6
22:29 11.6 11.1 97 1024.0 3.8 N 6.9 0.0 0.6
22:30 11.6 11.1 97 1023.9 3.8 E 6.9 0.0 0.6
22:31 11.6 11.1 97 1024.0 4.5 NNE 6.9 0.0 0.6
22:32 11.6 11.1 97 1024.0 3.1 NE 6.9 0.0 0.6
22:34 11.6 11.1 97 1023.9 6.9 WNW 6.9 0.0 0.6
22:35 11.6 11.1 97 1024.0 3.8 NE 6.9 0.0 0.6
22:36 11.5 11.0 97 1023.9 3.8 W 6.9 0.0 0.6
22:37 11.6 11.1 97 1023.9 4.5 N 6.9 0.0 0.6
22:38 11.6 11.1 97 1023.9 3.8 NW 6.9 0.0 0.6
22:39 11.6 11.1 97 1023.9 6.0 WNW 6.9 0.0 0.6
22:40 11.6 11.1 97 1023.9 6.0 NE 6.9 0.0 0.6
22:41 11.6 11.1 97 1024.1 5.4 N 6.9 0.0 0.6
22:42 11.6 11.1 97 1024.0 4.5 NE 6.9 0.0 0.6
22:43 11.5 11.0 97 1024.0 4.5 N 6.9 0.0 0.6
22:44 11.5 11.0 97 1024.0 3.1 WNW 6.9 0.0 0.6
22:45 11.5 11.0 97 1023.9 4.5 NW 6.0 0.0 0.6
22:46 11.5 11.0 97 1023.9 3.1 NW 6.0 0.0 0.6
22:47 11.6 11.1 97 1024.0 5.4 NE 6.0 0.0 0.6
22:48 11.6 11.1 97 1024.1 6.0 NE 9.2 0.0 0.6
22:49 11.5 11.0 97 1024.2 5.4 ENE 9.2 0.0 0.6
22:50 11.6 11.1 97 1024.2 4.5 NE 9.2 0.0 0.6
22:51 11.5 11.0 97 1024.3 4.5 NW 9.2 0.0 0.6
22:52 11.6 11.1 97 1024.1 4.5 E 9.2 0.0 0.6
22:53 11.6 11.1 97 1024.0 8.3 WNW 9.2 0.0 0.6
22:54 11.6 11.1 97 1024.0 5.4 NE 9.2 0.0 0.6
22:55 11.6 11.1 97 1024.1 8.3 W 9.2 0.0 0.6
22:56 11.6 11.1 97 1024.0 4.5 N 9.2 0.0 0.6
22:57 11.6 11.1 97 1024.0 5.4 NW 9.2 0.0 0.6
22:58 11.6 11.1 97 1024.1 6.9 N 8.3 0.0 0.6
22:59 11.6 11.1 97 1024.0 8.3 N 8.3 0.0 0.6
23:00 11.6 11.1 97 1024.1 4.5 NE 8.3 0.0 0.6
23:01 11.6 11.1 97 1024.0 4.5 NE 8.3 0.0 0.6
23:02 11.6 11.1 97 1023.9 4.5 NE 8.3 0.0 0.6
23:03 11.6 11.1 97 1023.9 4.5 NE 8.3 0.0 0.6
23:04 11.6 11.1 97 1024.1 4.5 NE 8.3 0.0 0.6
23:05 11.6 11.1 97 1024.1 10.7 NE 10.7 0.0 0.6
23:06 11.6 11.1 97 1024.1 3.1 NE 10.7 0.0 0.6
23:07 11.6 11.1 97 1024.1 6.9 NE 10.7 0.0 0.6
23:08 11.6 11.1 97 1024.1 3.8 N 10.7 0.0 0.6
23:09 11.6 11.1 97 1024.1 4.5 NE 10.7 0.0 0.6
23:11 11.6 11.1 97 1024.1 9.2 NW 10.7 0.0 0.6
23:12 11.6 11.1 97 1024.1 6.0 NE 10.7 0.0 0.6
23:13 11.5 11.0 97 1024.1 3.8 NW 10.7 0.0 0.6
23:14 11.5 11.0 97 1024.1 6.9 NNE 10.7 0.0 0.6
23:15 11.5 11.0 97 1024.0 4.5 NE 10.7 0.0 0.6
23:16 11.5 11.0 97 1024.0 5.4 NE 10.7 0.0 0.6
23:18 11.5 11.0 97 1024.1 6.9 N 9.2 0.0 0.6
23:19 11.5 11.0 97 1024.0 4.5 NE 9.2 0.0 0.6
23:20 11.5 11.0 97 1024.1 4.5 NE 9.2 0.0 0.6
23:21 11.5 11.0 97 1024.3 8.3 N 8.3 0.0 0.6
23:22 11.5 11.0 97 1024.2 6.0 E 8.3 0.0 0.6
23:23 11.4 10.9 97 1024.2 3.8 N 8.3 0.0 0.6
23:24 11.4 10.9 97 1024.1 5.4 NE 8.3 0.0 0.6
23:25 11.5 11.0 97 1024.3 4.5 NW 8.3 0.0 0.6
23:26 11.4 10.9 97 1024.2 5.4 NNE 8.3 0.0 0.6
23:27 11.4 10.9 97 1024.3 3.8 NE 8.3 0.0 0.6
23:28 11.5 11.0 97 1024.2 3.1 NW 8.3 0.0 0.6
23:29 11.4 10.9 97 1024.3 3.8 ENE 8.3 0.0 0.6
23:30 11.5 11.0 97 1024.3 3.8 N 8.3 0.0 0.6
23:31 11.4 10.9 97 1024.3 3.8 NE 8.3 0.0 0.6
23:32 11.5 11.0 97 1024.3 3.8 WNW 6.0 0.0 0.6
23:33 11.4 10.9 97 1024.3 5.4 NW 5.4 0.0 0.6
23:34 11.5 11.0 97 1024.1 6.0 NNE 6.0 0.0 0.6
23:35 11.5 11.0 97 1024.3 6.0 NW 6.0 0.0 0.6
23:36 11.6 11.1 97 1024.4 3.1 N 6.0 0.0 0.6
23:37 11.5 11.0 97 1024.4 3.8 NE 9.2 0.0 0.6
23:38 11.5 11.0 97 1024.5 3.8 NE 9.2 0.0 0.6
23:39 11.5 11.0 97 1024.4 5.4 NE 9.2 0.0 0.6
23:40 11.5 11.0 97 1024.3 6.9 N 9.2 0.0 0.6
23:41 11.6 11.1 97 1024.5 4.5 N 9.2 0.0 0.6
23:42 11.6 11.1 97 1024.4 6.9 NW 9.2 0.0 0.6
23:43 11.6 11.1 97 1024.3 9.2 N 9.2 0.0 0.6
23:44 11.6 11.3 98 1024.2 6.0 N 9.2 0.0 0.6
23:45 11.6 11.3 98 1024.5 5.4 NE 9.2 0.0 0.6
23:46 11.6 11.3 98 1024.3 6.0 NE 9.2 0.0 0.6
23:47 11.6 11.3 98 1024.3 9.2 N 9.2 0.0 0.6
23:49 11.6 11.3 98 1024.2 8.3 N 9.2 0.0 0.6
23:50 11.6 11.3 98 1024.3 6.9 NW 9.2 0.0 0.6
23:51 11.6 11.3 98 1024.3 5.4 NW 9.2 0.0 0.6
23:52 11.6 11.3 98 1024.3 6.0 SW 9.2 0.0 0.6
23:53 11.6 11.3 98 1024.4 6.9 NE 9.2 0.0 0.6
23:54 11.6 11.3 98 1024.3 5.4 N 9.2 0.0 0.6
23:55 11.7 11.4 98 1024.3 5.4 NE 9.2 0.0 0.6
23:56 11.6 11.3 98 1024.2 7.6 N 9.2 0.0 0.6
23:57 11.7 11.4 98 1024.1 6.0 NE 8.3 0.0 0.6
23:58 11.6 11.3 98 1024.2 6.0 N 8.3 0.0 0.6
23:59 11.7 11.4 98 1024.2 7.6 N 8.3 0.0 0.6

UK - WEATHER STATION TOPSITES - UK World Weather Websites

This is a private weather station, never base important decisions or events on data from this weather station. Although every effort has been made to make the data as accurate as possible it does not meet MetOffice standards. It is proved as a guide of local weather conditions. We accept no liability for any loss which may arise from use of the data.

Copyright © Carnkie Weather 2009 - 2018.